<- Previous Day | Today | Next Day ->

All Data for 03 August 2020

 

Time A - D Temp A - D Dew Point A - D Humidity A - D Pressure A - D Wind A - D Wind Dir Gust A - D Rain Rate A - D Rain Total
00:00 12.8 8.9 77 1018.0 0.7 SW 0.7 0.0 0.0
00:01 12.8 8.9 77 1018.2 0.7 S 0.7 0.0 0.0
00:02 12.8 8.9 77 1017.9 0.7 S 0.7 0.0 0.0
00:04 12.7 8.8 77 1017.8 0.0 S 0.7 0.0 0.0
00:05 12.7 8.8 77 1018.1 0.0 S 0.7 0.0 0.0
00:06 12.7 8.8 77 1017.9 0.0 S 0.7 0.0 0.0
00:07 12.7 8.8 77 1017.9 0.7 NNW 0.7 0.0 0.0
00:08 12.7 8.8 77 1017.9 0.0 NNW 0.7 0.0 0.0
00:09 12.7 8.8 77 1017.9 0.0 NNW 0.7 0.0 0.0
00:10 12.7 8.8 77 1017.9 0.7 NNW 0.7 0.0 0.0
00:11 12.6 8.7 77 1017.9 1.6 NNW 1.6 0.0 0.0
00:12 12.6 8.7 77 1018.0 3.1 W 3.1 0.0 0.0
00:13 12.6 8.7 77 1017.9 3.1 NW 3.1 0.0 0.0
00:14 12.6 8.7 77 1018.0 3.1 W 3.1 0.0 0.0
00:15 12.6 8.7 77 1017.9 3.1 NW 3.1 0.0 0.0
00:16 12.6 8.7 77 1017.9 3.1 W 3.1 0.0 0.0
00:18 12.6 8.7 77 1017.7 3.1 NW 3.1 0.0 0.0
00:19 12.6 8.9 78 1018.2 2.2 NW 3.1 0.0 0.0
00:20 12.6 8.9 78 1017.9 2.2 NW 3.1 0.0 0.0
00:21 12.6 8.9 78 1017.9 2.2 NW 3.1 0.0 0.0
00:22 12.6 8.9 78 1017.8 1.6 NE 3.1 0.0 0.0
00:23 12.6 8.9 78 1017.7 3.8 N 3.8 0.0 0.0
00:24 12.6 8.9 78 1017.9 3.8 NW 3.8 0.0 0.0
00:25 12.6 8.9 78 1017.9 3.8 NW 3.8 0.0 0.0
00:26 12.6 8.9 78 1018.2 1.6 W 3.8 0.0 0.0
00:27 12.7 9.0 78 1017.8 3.8 W 3.8 0.0 0.0
00:28 12.7 9.2 79 1017.9 2.2 W 3.8 0.0 0.0
00:29 12.7 9.2 79 1017.7 2.2 NW 3.8 0.0 0.0
00:30 12.7 9.2 79 1017.7 3.1 NW 3.8 0.0 0.0
00:31 12.7 9.2 79 1017.9 3.1 NW 3.8 0.0 0.0
00:33 12.8 9.3 79 1017.8 2.2 W 3.8 0.0 0.0
00:34 12.8 9.3 79 1018.1 2.2 SE 3.8 0.0 0.0
00:35 12.8 9.3 79 1017.9 1.6 NW 3.8 0.0 0.0
00:36 12.8 9.3 79 1017.7 1.6 W 3.8 0.0 0.0
00:37 12.8 9.4 80 1017.9 2.2 NW 3.8 0.0 0.0
00:38 12.8 9.4 80 1018.0 2.2 NW 3.8 0.0 0.0
00:39 12.8 9.4 80 1017.8 2.2 N 3.1 0.0 0.0
00:40 12.9 9.5 80 1018.0 2.2 NW 3.1 0.0 0.0
00:41 12.9 9.5 80 1018.1 1.6 W 3.1 0.0 0.0
00:42 12.9 9.5 80 1017.8 1.6 W 2.2 0.0 0.0
00:43 12.9 9.5 80 1017.7 1.6 NW 2.2 0.0 0.0
00:44 12.9 9.5 80 1017.8 1.6 NW 2.2 0.0 0.0
00:45 12.9 9.5 80 1017.9 0.7 NW 2.2 0.0 0.0
00:46 12.9 9.5 80 1017.8 2.2 NW 2.2 0.0 0.0
00:47 12.9 9.5 80 1017.8 2.2 W 2.2 0.0 0.0
00:48 12.9 9.5 80 1017.8 2.2 NNW 2.2 0.0 0.0
00:50 12.9 9.5 80 1017.6 2.2 NW 2.2 0.0 0.0
00:51 12.9 9.5 80 1018.0 2.2 N 2.2 0.0 0.0
00:52 12.9 9.5 80 1017.6 1.6 NW 2.2 0.0 0.0
00:53 12.9 9.5 80 1017.6 0.7 NW 2.2 0.0 0.0
00:54 12.9 9.5 80 1017.6 0.7 NW 2.2 0.0 0.0
00:55 12.8 9.4 80 1017.7 2.2 WNW 2.2 0.0 0.0
00:56 12.8 9.4 80 1017.8 1.6 W 2.2 0.0 0.0
00:58 12.8 9.4 80 1017.9 3.1 NW 3.1 0.0 0.0
00:59 12.8 9.4 80 1017.7 1.6 W 3.1 0.0 0.0
01:00 12.8 9.4 80 1017.9 1.6 W 3.1 0.0 0.0
01:01 12.8 9.4 80 1017.9 1.6 W 3.1 0.0 0.0
01:02 12.8 9.4 80 1017.7 1.6 W 3.1 0.0 0.0
01:03 12.8 9.4 80 1017.7 1.6 W 3.1 0.0 0.0
01:04 12.8 9.4 80 1017.6 1.6 W 3.1 0.0 0.0
01:05 12.8 9.4 80 1017.8 1.6 W 3.1 0.0 0.0
01:06 12.8 9.4 80 1017.7 3.1 W 3.1 0.0 0.0
01:07 12.8 9.4 80 1017.7 3.1 NW 3.1 0.0 0.0
01:08 12.8 9.4 80 1017.5 1.6 NW 3.1 0.0 0.0
01:09 12.8 9.4 80 1017.7 1.6 NW 3.1 0.0 0.0
01:10 12.8 9.4 80 1017.6 1.6 N 3.1 0.0 0.0
01:12 12.8 9.4 80 1017.9 1.6 NW 3.1 0.0 0.0
01:13 12.8 9.4 80 1017.6 1.6 NW 3.1 0.0 0.0
01:14 12.8 9.4 80 1017.7 0.7 NW 3.1 0.0 0.0
01:15 12.8 9.4 80 1017.9 0.7 N 3.1 0.0 0.0
01:16 12.8 9.4 80 1017.7 0.0 N 3.1 0.0 0.0
01:17 12.8 9.4 80 1017.6 0.7 W 3.1 0.0 0.0
01:18 12.8 9.4 80 1017.7 2.2 NW 2.2 0.0 0.0
01:19 12.8 9.4 80 1017.8 0.0 NW 2.2 0.0 0.0
01:20 12.7 9.3 80 1017.7 0.0 NW 2.2 0.0 0.0
01:22 12.7 9.3 80 1017.5 0.0 NW 2.2 0.0 0.0
01:23 12.7 9.3 80 1017.7 0.7 NW 2.2 0.0 0.0
01:24 12.7 9.2 79 1017.6 0.7 NW 2.2 0.0 0.0
01:25 12.6 9.1 79 1017.7 0.0 NW 2.2 0.0 0.0
01:26 12.6 9.1 79 1017.8 0.0 NW 2.2 0.0 0.0
01:27 12.6 9.1 79 1017.7 0.0 NW 2.2 0.0 0.0
01:29 12.6 9.1 79 1017.6 0.0 NW 0.7 0.0 0.0
01:30 12.6 9.1 79 1017.6 0.0 NW 0.7 0.0 0.0
01:31 12.6 9.1 79 1017.7 0.0 NW 0.7 0.0 0.0
01:32 12.5 9.0 79 1017.5 0.0 NW 0.7 0.0 0.0
01:33 12.5 9.0 79 1017.8 0.0 NW 0.7 0.0 0.0
01:34 12.5 9.0 79 1017.6 0.0 NW 0.7 0.0 0.0
01:35 12.4 9.2 81 1017.6 0.7 NW 0.7 0.0 0.0
01:36 12.4 9.2 81 1017.7 0.7 NW 0.7 0.0 0.0
01:37 12.4 9.2 81 1017.5 0.7 NW 0.7 0.0 0.0
01:38 12.4 9.2 81 1017.7 0.7 NW 0.7 0.0 0.0
01:39 12.3 9.1 81 1017.8 0.0 NW 0.7 0.0 0.0
01:40 12.3 9.1 81 1017.6 0.0 NW 0.7 0.0 0.0
01:41 12.3 9.1 81 1017.5 0.0 NW 0.7 0.0 0.0
01:42 12.2 9.0 81 1017.7 0.0 NW 0.7 0.0 0.0
01:44 12.2 9.0 81 1017.6 0.0 NW 0.7 0.0 0.0
01:45 12.1 8.9 81 1017.7 0.0 NW 0.7 0.0 0.0
01:46 12.1 8.9 81 1017.5 0.0 NW 0.7 0.0 0.0
01:47 12.0 8.8 81 1017.6 0.0 NW 0.7 0.0 0.0
01:48 12.0 8.8 81 1017.6 0.0 NW 0.7 0.0 0.0
01:49 12.0 8.8 81 1017.8 0.0 NW 0.0 0.0 0.0
01:50 12.0 8.8 81 1017.6 0.0 NW 0.0 0.0 0.0
01:51 11.9 8.6 80 1017.6 1.6 N 1.6 0.0 0.0
01:52 11.9 8.6 80 1017.7 0.7 N 1.6 0.0 0.0
01:53 11.9 8.6 80 1017.6 0.0 N 1.6 0.0 0.0
01:54 11.9 8.6 80 1017.8 0.7 N 1.6 0.0 0.0
01:55 11.9 8.7 81 1017.5 0.7 N 1.6 0.0 0.0
01:56 11.8 8.6 81 1017.6 0.7 N 1.6 0.0 0.0
01:58 11.8 8.6 81 1017.5 0.7 N 1.6 0.0 0.0
01:59 11.8 8.5 80 1017.4 0.0 N 1.6 0.0 0.0
02:00 11.8 8.5 80 1017.5 0.0 N 1.6 0.0 0.0
02:01 11.7 8.4 80 1017.7 0.0 N 1.6 0.0 0.0
02:02 11.7 8.4 80 1017.5 0.0 N 1.6 0.0 0.0
02:03 11.7 8.4 80 1017.6 0.0 N 0.7 0.0 0.0
02:04 11.6 8.3 80 1017.6 0.0 N 0.7 0.0 0.0
02:05 11.6 8.3 80 1017.4 0.0 N 0.7 0.0 0.0
02:06 11.5 8.2 80 1017.6 0.0 N 0.7 0.0 0.0
02:07 11.5 8.2 80 1017.5 0.0 N 0.7 0.0 0.0
02:08 11.4 8.1 80 1017.5 0.0 N 0.7 0.0 0.0
02:09 11.4 8.1 80 1017.5 0.0 N 0.0 0.0 0.0
02:10 11.4 8.1 80 1017.6 0.0 N 0.0 0.0 0.0
02:12 11.3 8.0 80 1017.5 0.0 N 0.0 0.0 0.0
02:13 11.3 8.0 80 1017.5 0.0 N 0.0 0.0 0.0
02:14 11.3 8.0 80 1017.6 0.0 N 0.0 0.0 0.0
02:15 11.3 8.0 80 1017.6 0.7 N 0.7 0.0 0.0
02:16 11.3 8.0 80 1017.4 0.7 N 0.7 0.0 0.0
02:17 11.3 8.0 80 1017.5 0.0 N 0.7 0.0 0.0
02:18 11.3 8.0 80 1017.7 0.0 N 0.7 0.0 0.0
02:19 11.3 8.0 80 1017.5 0.0 N 0.7 0.0 0.0
02:20 11.3 8.0 80 1017.6 0.0 N 0.7 0.0 0.0
02:21 11.2 7.9 80 1017.6 0.0 N 0.7 0.0 0.0
02:22 11.2 7.9 80 1017.4 0.0 N 0.7 0.0 0.0
02:23 11.2 7.9 80 1017.6 0.0 N 0.7 0.0 0.0
02:24 11.2 7.9 80 1017.5 0.0 N 0.7 0.0 0.0
02:26 11.2 7.9 80 1017.7 0.0 N 0.0 0.0 0.0
02:27 11.1 7.8 80 1017.7 0.0 N 0.0 0.0 0.0
02:28 11.1 7.8 80 1017.3 0.0 N 0.0 0.0 0.0
02:29 11.1 7.8 80 1017.6 0.0 N 0.0 0.0 0.0
02:30 11.1 7.8 80 1017.7 0.0 N 0.0 0.0 0.0
02:31 11.1 7.8 80 1017.4 0.0 N 0.0 0.0 0.0
02:32 11.1 7.8 80 1017.5 0.0 N 0.0 0.0 0.0
02:33 11.1 7.8 80 1017.5 0.0 N 0.0 0.0 0.0
02:34 11.0 7.7 80 1017.3 0.0 N 0.0 0.0 0.0
02:35 11.0 7.7 80 1017.3 0.0 N 0.0 0.0 0.0
02:36 11.0 7.7 80 1017.5 0.7 W 0.7 0.0 0.0
02:37 11.0 7.7 80 1017.5 0.7 W 0.7 0.0 0.0
02:38 11.0 7.7 80 1017.5 0.7 NE 0.7 0.0 0.0
02:40 10.9 7.6 80 1017.3 0.7 SE 0.7 0.0 0.0
02:41 10.9 7.6 80 1017.3 0.7 SE 0.7 0.0 0.0
02:42 10.9 7.6 80 1017.2 0.0 SE 0.7 0.0 0.0
02:43 10.9 7.6 80 1017.3 0.0 SE 0.7 0.0 0.0
02:44 10.9 7.6 80 1017.3 0.0 SE 0.7 0.0 0.0
02:45 11.0 7.9 81 1017.5 0.0 SE 0.7 0.0 0.0
02:46 11.0 7.9 81 1017.5 0.0 SE 0.7 0.0 0.0
02:47 11.0 7.9 81 1017.3 0.0 SE 0.7 0.0 0.0
02:48 11.0 7.9 81 1017.3 0.0 SE 0.7 0.0 0.0
02:49 10.9 7.8 81 1017.5 0.0 SE 0.7 0.0 0.0
02:50 10.9 7.8 81 1017.5 0.0 SE 0.7 0.0 0.0
02:51 10.9 7.8 81 1017.4 0.0 SE 0.0 0.0 0.0
02:52 10.9 7.8 81 1017.2 0.0 SE 0.0 0.0 0.0
02:54 10.8 7.7 81 1017.7 0.0 N 0.0 0.0 0.0
02:55 10.8 7.7 81 1017.4 0.7 NE 0.7 0.0 0.0
02:56 10.8 7.7 81 1017.3 0.7 NE 0.7 0.0 0.0
02:57 10.8 7.7 81 1017.4 0.7 NE 0.7 0.0 0.0
02:58 10.8 7.7 81 1017.6 0.7 NE 0.7 0.0 0.0
02:59 10.8 7.7 81 1017.3 0.0 NE 0.7 0.0 0.0
03:00 10.8 7.7 81 1017.4 0.0 NE 0.7 0.0 0.0
03:01 10.8 7.7 81 1017.4 0.0 NE 0.7 0.0 0.0
03:02 10.8 7.7 81 1017.6 0.0 NE 0.7 0.0 0.0
03:03 10.8 7.7 81 1017.3 0.0 NE 0.7 0.0 0.0
03:04 10.8 7.7 81 1017.4 0.0 NE 0.7 0.0 0.0
03:05 10.8 7.7 81 1017.1 0.0 NE 0.7 0.0 0.0
03:06 10.8 7.7 81 1017.4 0.0 W 0.7 0.0 0.0
03:08 10.8 7.7 81 1017.4 0.0 N 0.0 0.0 0.0
03:09 10.8 7.7 81 1017.4 0.0 N 0.0 0.0 0.0
03:10 10.7 7.6 81 1017.3 0.7 N 0.7 0.0 0.0
03:11 10.7 7.6 81 1017.3 0.0 N 0.7 0.0 0.0
03:12 10.7 7.6 81 1017.2 0.0 N 0.7 0.0 0.0
03:13 10.7 7.6 81 1017.3 0.0 N 0.7 0.0 0.0
03:14 10.7 7.6 81 1017.3 0.0 N 0.7 0.0 0.0
03:15 10.7 7.6 81 1017.2 0.0 N 0.7 0.0 0.0
03:16 10.7 7.6 81 1017.2 0.0 N 0.7 0.0 0.0
03:17 10.7 7.6 81 1017.3 0.0 N 0.7 0.0 0.0
03:18 10.7 7.6 81 1017.3 0.0 N 0.7 0.0 0.0
03:19 10.7 7.6 81 1017.3 0.0 N 0.7 0.0 0.0
03:20 10.6 7.5 81 1017.2 0.0 N 0.0 0.0 0.0
03:22 10.6 7.5 81 1017.4 0.0 N 0.0 0.0 0.0
03:23 10.6 7.5 81 1017.4 0.0 N 0.0 0.0 0.0
03:24 10.6 7.5 81 1017.3 0.0 N 0.0 0.0 0.0
03:25 10.6 7.5 81 1017.2 0.0 NE 0.0 0.0 0.0
03:26 10.6 7.5 81 1017.0 0.0 NE 0.0 0.0 0.0
03:27 10.6 7.5 81 1017.3 0.0 NE 0.0 0.0 0.0
03:28 10.6 7.5 81 1017.3 0.0 NE 0.0 0.0 0.0
03:29 10.6 7.5 81 1017.2 0.0 NE 0.0 0.0 0.0
03:30 10.6 7.5 81 1017.1 0.0 NE 0.0 0.0 0.0
03:31 10.6 7.5 81 1017.3 0.0 W 0.0 0.0 0.0
03:32 10.6 7.5 81 1017.4 0.7 NE 0.7 0.0 0.0
03:33 10.6 7.5 81 1017.2 0.7 N 0.7 0.0 0.0
03:34 10.6 7.5 81 1017.2 0.7 NE 0.7 0.0 0.0
03:36 10.6 7.5 81 1017.3 0.0 NE 0.7 0.0 0.0
03:37 10.6 7.5 81 1017.3 0.0 NE 0.7 0.0 0.0
03:38 10.6 7.7 82 1017.1 0.0 NE 0.7 0.0 0.0
03:39 10.6 7.7 82 1017.0 0.7 W 0.7 0.0 0.0
03:40 10.6 7.7 82 1016.9 0.7 W 0.7 0.0 0.0
03:41 10.6 7.7 82 1017.2 0.0 W 0.7 0.0 0.0
03:42 10.5 7.6 82 1017.2 0.0 W 0.7 0.0 0.0
03:43 10.5 7.6 82 1017.2 0.0 W 0.7 0.0 0.0
03:44 10.4 7.5 82 1017.1 0.7 NE 0.7 0.0 0.0
03:45 10.4 7.3 81 1017.1 0.0 NE 0.7 0.0 0.0
03:46 10.4 7.3 81 1017.0 0.0 NE 0.7 0.0 0.0
03:47 10.4 7.3 81 1017.4 0.0 NE 0.7 0.0 0.0
03:48 10.4 7.3 81 1017.1 0.0 NE 0.7 0.0 0.0
03:49 10.3 7.2 81 1017.2 0.0 NE 0.7 0.0 0.0
03:51 10.3 7.2 81 1017.1 0.0 NE 0.7 0.0 0.0
03:52 10.3 7.2 81 1017.0 0.0 NE 0.7 0.0 0.0
03:53 10.3 7.2 81 1017.0 0.0 NE 0.7 0.0 0.0
03:54 10.3 7.2 81 1017.2 0.0 NE 0.7 0.0 0.0
03:55 10.3 7.2 81 1017.0 0.0 NE 0.7 0.0 0.0
03:56 10.3 7.2 81 1017.2 0.0 NE 0.0 0.0 0.0
03:57 10.3 7.2 81 1017.0 0.0 NE 0.0 0.0 0.0
03:58 10.3 7.2 81 1017.1 0.0 NE 0.0 0.0 0.0
03:59 10.3 7.2 81 1017.0 0.0 NE 0.0 0.0 0.0
04:00 10.3 7.2 81 1017.0 0.0 NE 0.0 0.0 0.0
04:01 10.3 7.2 81 1017.0 0.0 NE 0.0 0.0 0.0
04:02 10.3 7.4 82 1017.1 0.7 NE 0.7 0.0 0.0
04:03 10.3 7.4 82 1017.0 0.7 NE 0.7 0.0 0.0
04:05 10.3 7.4 82 1017.0 0.7 NE 0.7 0.0 0.0
04:06 10.3 7.4 82 1017.0 0.7 NE 0.7 0.0 0.0
04:07 10.4 7.5 82 1017.0 0.0 NE 0.7 0.0 0.0
04:08 10.4 7.5 82 1017.1 0.7 NE 0.7 0.0 0.0
04:09 10.4 7.5 82 1017.0 0.7 NE 0.7 0.0 0.0
04:10 10.4 7.5 82 1017.0 0.0 NE 0.7 0.0 0.0
04:11 10.4 7.5 82 1017.1 0.0 NE 0.7 0.0 0.0
04:12 10.4 7.5 82 1017.2 0.0 NE 0.7 0.0 0.0
04:13 10.4 7.5 82 1017.0 0.7 NW 0.7 0.0 0.0
04:14 10.4 7.5 82 1017.0 0.7 NW 0.7 0.0 0.0
04:15 10.4 7.5 82 1016.9 0.0 NW 0.7 0.0 0.0
04:16 10.4 7.5 82 1017.0 0.0 NW 0.7 0.0 0.0
04:17 10.4 7.5 82 1017.1 0.7 NW 0.7 0.0 0.0
04:18 10.4 7.5 82 1017.0 0.7 NW 0.7 0.0 0.0
04:20 10.4 7.5 82 1016.9 0.0 NW 0.7 0.0 0.0
04:21 10.4 7.5 82 1017.0 1.6 N 1.6 0.0 0.0
04:22 10.4 7.5 82 1017.1 0.7 N 1.6 0.0 0.0
04:23 10.4 7.6 83 1017.2 1.6 N 1.6 0.0 0.0
04:24 10.4 7.6 83 1016.9 0.0 N 1.6 0.0 0.0
04:25 10.5 7.7 83 1017.0 0.0 N 1.6 0.0 0.0
04:26 10.5 7.7 83 1017.1 0.0 N 1.6 0.0 0.0
04:27 10.5 7.7 83 1017.0 0.0 N 1.6 0.0 0.0
04:28 10.6 7.8 83 1017.0 0.7 N 1.6 0.0 0.0
04:29 10.6 7.8 83 1017.1 0.7 N 1.6 0.0 0.0
04:30 10.6 7.8 83 1017.0 0.7 N 1.6 0.0 0.0
04:31 10.7 7.9 83 1017.1 0.7 N 1.6 0.0 0.0
04:32 10.7 7.9 83 1017.0 0.7 N 1.6 0.0 0.0
04:34 10.7 8.1 84 1016.9 0.7 N 0.7 0.0 0.0
04:35 10.8 8.2 84 1016.8 0.7 N 0.7 0.0 0.0
04:36 10.8 8.2 84 1017.1 0.0 NE 0.7 0.0 0.0
04:37 10.8 8.2 84 1016.9 0.0 NE 0.7 0.0 0.0
04:38 10.8 8.2 84 1017.1 0.7 NE 0.7 0.0 0.0
04:39 10.8 8.2 84 1017.1 0.7 NE 0.7 0.0 0.0
04:40 10.9 8.3 84 1016.9 0.7 NE 0.7 0.0 0.0
04:41 10.9 8.3 84 1016.9 0.7 NE 0.7 0.0 0.0
04:42 10.9 8.3 84 1017.0 0.7 NE 0.7 0.0 0.0
04:43 10.9 8.3 84 1017.1 0.7 NE 0.7 0.0 0.0
04:44 10.9 8.3 84 1016.9 0.7 N 0.7 0.0 0.0
04:45 10.9 8.3 84 1016.9 0.7 N 0.7 0.0 0.0
04:46 10.9 8.3 84 1017.1 2.2 NE 2.2 0.0 0.0
04:47 10.9 8.3 84 1016.8 2.2 NE 2.2 0.0 0.0
04:49 11.0 8.4 84 1016.7 1.6 N 2.2 0.0 0.0
04:50 11.0 8.4 84 1016.8 0.7 N 2.2 0.0 0.0
04:51 11.0 8.6 85 1016.9 0.7 N 2.2 0.0 0.0
04:52 11.0 8.6 85 1016.9 0.7 NW 2.2 0.0 0.0
04:53 11.0 8.6 85 1017.0 0.0 NW 2.2 0.0 0.0
04:54 11.0 8.6 85 1016.9 0.0 NW 2.2 0.0 0.0
04:55 10.9 8.3 84 1016.9 0.0 NW 2.2 0.0 0.0
04:56 10.8 8.2 84 1016.9 0.0 NW 2.2 0.0 0.0
04:57 10.7 8.1 84 1016.9 0.7 NW 1.6 0.0 0.0
04:58 10.7 8.1 84 1016.9 0.7 NW 1.6 0.0 0.0
04:59 10.6 8.0 84 1017.1 0.7 NW 0.7 0.0 0.0
05:00 10.6 8.0 84 1017.0 0.7 NW 0.7 0.0 0.0
05:01 10.6 8.0 84 1017.0 0.7 NW 0.7 0.0 0.0
05:03 10.6 8.0 84 1017.0 0.7 NW 0.7 0.0 0.0
05:04 10.6 8.0 84 1016.9 0.7 NW 0.7 0.0 0.0
05:05 10.6 8.0 84 1017.1 0.7 NW 0.7 0.0 0.0
05:06 10.6 8.0 84 1017.2 0.7 NW 0.7 0.0 0.0
05:07 10.5 7.9 84 1017.1 0.7 N 0.7 0.0 0.0
05:08 10.5 7.9 84 1017.0 0.7 NW 0.7 0.0 0.0
05:09 10.5 7.9 84 1017.1 0.7 NW 0.7 0.0 0.0
05:10 10.5 7.9 84 1016.9 1.6 NW 1.6 0.0 0.0
05:11 10.6 8.0 84 1017.0 0.7 NE 1.6 0.0 0.0
05:12 10.6 8.0 84 1017.0 0.7 NW 1.6 0.0 0.0
05:13 10.6 8.0 84 1017.2 1.6 NW 1.6 0.0 0.0
05:14 10.6 8.0 84 1017.1 1.6 NW 1.6 0.0 0.0
05:15 10.7 8.1 84 1017.0 2.2 NW 2.2 0.0 0.0
05:17 10.7 8.1 84 1017.1 2.2 NW 2.2 0.0 0.0
05:18 10.7 8.1 84 1016.9 1.6 NW 2.2 0.0 0.0
05:19 10.8 8.4 85 1016.9 2.2 W 2.2 0.0 0.0
05:20 10.9 8.5 85 1016.9 2.2 NW 2.2 0.0 0.0
05:21 10.9 8.5 85 1017.1 3.1 N 3.1 0.0 0.0
05:22 10.9 8.5 85 1016.9 3.1 N 3.1 0.0 0.0
05:23 11.0 8.6 85 1017.0 2.2 NW 3.1 0.0 0.0
05:24 11.0 8.6 85 1016.8 3.1 NW 3.1 0.0 0.0
05:25 11.1 8.7 85 1017.1 3.1 NW 3.1 0.0 0.0
05:26 11.1 8.7 85 1017.0 3.1 WNW 3.1 0.0 0.0
05:27 11.1 8.7 85 1017.1 3.1 W 3.1 0.0 0.0
05:28 11.2 8.8 85 1017.0 1.6 W 3.1 0.0 0.0
05:29 11.2 8.9 86 1017.0 2.2 N 3.1 0.0 0.0
05:31 11.2 8.9 86 1017.1 3.1 NW 3.1 0.0 0.0
05:32 11.2 8.9 86 1017.1 3.1 W 3.1 0.0 0.0
05:33 11.2 8.9 86 1017.1 2.2 NW 3.1 0.0 0.0
05:34 11.2 8.9 86 1017.1 2.2 N 3.1 0.0 0.0
05:35 11.3 9.0 86 1017.1 3.1 W 3.1 0.0 0.0
05:36 11.3 9.0 86 1016.9 2.2 NW 3.1 0.0 0.0
05:37 11.3 9.0 86 1017.1 3.8 NW 3.8 0.0 0.0
05:38 11.3 9.0 86 1017.0 2.2 NW 3.8 0.0 0.0
05:39 11.3 9.0 86 1017.2 2.2 SE 3.8 0.0 0.0
05:40 11.3 9.0 86 1017.1 2.2 NW 3.8 0.0 0.0
05:41 11.4 9.1 86 1017.0 3.1 NW 3.8 0.0 0.0
05:42 11.4 9.1 86 1017.1 3.1 W 3.8 0.0 0.0
05:43 11.4 9.1 86 1016.9 3.1 NW 3.8 0.0 0.0
05:46 11.4 9.1 86 1017.0 2.2 W 3.8 0.0 0.0
05:47 11.4 9.1 86 1016.8 2.2 W 3.8 0.0 0.0
05:48 11.4 9.1 86 1017.0 3.1 W 3.1 0.0 0.0
05:49 11.4 9.3 87 1017.1 3.8 NW 3.8 0.0 0.0
05:50 11.4 9.3 87 1016.9 2.2 N 3.8 0.0 0.0
05:51 11.4 9.3 87 1017.1 3.1 WNW 3.8 0.0 0.0
05:52 11.5 9.4 87 1017.1 3.1 W 3.8 0.0 0.0
05:53 11.5 9.4 87 1016.9 2.2 W 3.8 0.0 0.0
05:54 11.5 9.4 87 1016.9 2.2 W 3.8 0.0 0.0
05:55 11.4 9.3 87 1016.8 3.1 N 3.8 0.0 0.0
05:56 11.5 9.4 87 1016.9 3.1 N 3.8 0.0 0.0
05:57 11.5 9.4 87 1017.0 1.6 N 3.8 0.0 0.0
05:59 11.5 9.4 87 1017.0 0.7 N 3.1 0.0 0.0
06:00 11.5 9.4 87 1017.1 2.2 N 3.1 0.0 0.0
06:01 11.5 9.4 87 1017.0 1.6 N 3.1 0.0 0.0
06:02 11.5 9.4 87 1017.2 1.6 W 3.1 0.0 0.0
06:03 11.5 9.4 87 1017.1 2.2 N 3.1 0.0 0.0
06:04 11.5 9.4 87 1017.2 1.6 W 3.1 0.0 0.0
06:05 11.5 9.4 87 1017.1 3.1 NW 3.1 0.0 0.0
06:06 11.5 9.4 87 1017.1 3.1 N 3.1 0.0 0.0
06:07 11.5 9.4 87 1016.9 3.1 NW 3.1 0.0 0.0
06:08 11.6 9.5 87 1017.3 2.2 N 3.1 0.0 0.0
06:09 11.6 9.5 87 1017.1 2.2 N 3.1 0.0 0.0
06:10 11.6 9.5 87 1017.0 2.2 W 3.1 0.0 0.0
06:11 11.6 9.5 87 1017.2 2.2 W 3.1 0.0 0.0
06:12 11.6 9.5 87 1017.1 3.8 N 3.8 0.0 0.0
06:14 11.6 9.5 87 1017.0 2.2 NW 3.8 0.0 0.0
06:15 11.6 9.5 87 1017.1 2.2 NW 3.8 0.0 0.0
06:16 11.6 9.5 87 1017.1 1.6 WNW 3.8 0.0 0.0
06:17 11.7 9.6 87 1017.0 2.2 W 3.8 0.0 0.0
06:18 11.7 9.6 87 1017.0 2.2 N 3.8 0.0 0.0
06:19 11.7 9.6 87 1017.1 1.6 N 3.8 0.0 0.0
06:20 11.7 9.6 87 1017.1 2.2 N 3.8 0.0 0.0
06:21 11.7 9.6 87 1017.1 2.2 N 3.8 0.0 0.0
06:22 11.7 9.6 87 1017.1 2.2 NW 3.8 0.0 0.0
06:23 11.7 9.6 87 1017.4 2.2 N 2.2 0.0 0.0
06:24 11.7 9.6 87 1017.4 3.8 W 3.8 0.0 0.0
06:25 11.7 9.6 87 1017.1 3.8 NW 3.8 0.0 0.0
06:27 11.7 9.6 87 1017.2 3.8 W 3.8 0.0 0.0
06:28 11.7 9.6 87 1017.1 3.1 W 3.8 0.0 0.0
06:29 11.7 9.6 87 1017.1 3.1 WNW 3.8 0.0 0.0
06:30 11.7 9.6 87 1017.2 3.8 W 3.8 0.0 0.0
06:31 11.8 9.9 88 1017.1 3.8 W 3.8 0.0 0.0
06:32 11.8 9.9 88 1017.3 3.1 W 3.8 0.0 0.0
06:33 11.8 9.9 88 1017.3 3.8 N 3.8 0.0 0.0
06:34 11.8 9.9 88 1017.1 3.1 N 3.8 0.0 0.0
06:35 11.8 9.9 88 1017.3 3.1 W 3.8 0.0 0.0
06:36 11.8 9.9 88 1017.3 4.5 W 4.5 0.0 0.0
06:37 11.8 9.9 88 1017.4 4.5 SW 4.5 0.0 0.0
06:38 11.9 10.0 88 1017.3 4.5 W 4.5 0.0 0.0
06:39 11.9 10.0 88 1017.2 4.5 W 4.5 0.0 0.0
06:41 11.9 10.0 88 1017.3 3.1 W 4.5 0.0 0.0
06:42 11.9 10.0 88 1017.3 3.1 W 4.5 0.0 0.0
06:43 11.9 10.0 88 1017.3 4.5 W 5.4 0.0 0.0
06:44 11.9 10.0 88 1017.2 2.2 W 5.4 0.0 0.0
06:45 11.9 10.0 88 1017.3 3.1 W 5.4 0.0 0.0
06:46 12.0 10.1 88 1017.3 3.1 W 5.4 0.0 0.0
06:47 12.0 10.1 88 1017.2 3.8 W 5.4 0.0 0.0
06:48 12.0 10.1 88 1017.4 3.1 W 5.4 0.0 0.0
06:49 12.0 10.1 88 1017.4 3.1 W 5.4 0.0 0.0
06:50 12.0 10.1 88 1017.3 3.1 W 5.4 0.0 0.0
06:51 12.0 10.1 88 1017.4 3.1 W 5.4 0.0 0.0
06:52 12.1 10.2 88 1017.5 3.1 W 5.4 0.0 0.0
06:53 12.1 10.2 88 1017.3 3.1 W 3.8 0.0 0.0
06:56 12.1 10.2 88 1017.4 3.8 W 4.5 0.0 0.0
06:57 12.1 10.2 88 1017.4 3.1 NW 4.5 0.0 0.0
06:58 12.1 10.2 88 1017.5 3.8 N 4.5 0.0 0.0
06:59 12.2 10.3 88 1017.3 3.8 N 4.5 0.0 0.0
07:00 12.2 10.3 88 1017.5 3.8 N 4.5 0.0 0.0
07:01 12.2 10.3 88 1017.1 3.8 N 4.5 0.0 0.0
07:02 12.2 10.3 88 1017.3 3.8 N 4.5 0.0 0.0
07:03 12.2 10.3 88 1017.6 4.5 W 4.5 0.0 0.0
07:04 12.3 10.5 89 1017.5 3.8 SW 4.5 0.0 0.0
07:05 12.3 10.5 89 1017.4 5.4 WNW 5.4 0.0 0.0
07:06 12.3 10.5 89 1017.6 3.8 W 5.4 0.0 0.0
07:07 12.3 10.5 89 1017.5 4.5 N 5.4 0.0 0.0
07:09 12.4 10.6 89 1017.5 3.8 WNW 5.4 0.0 0.0
07:10 12.4 10.6 89 1017.5 3.8 WNW 5.4 0.0 0.0
07:11 12.4 10.6 89 1017.5 4.5 W 5.4 0.0 0.0
07:12 12.4 10.6 89 1017.7 4.5 N 5.4 0.0 0.0
07:13 12.4 10.6 89 1017.4 4.5 SW 5.4 0.0 0.0
07:14 12.5 10.1 85 1017.5 5.4 W 5.4 0.0 0.0
07:15 12.5 10.1 85 1017.4 5.4 W 5.4 0.0 0.0
07:16 12.5 10.1 85 1017.4 6.0 W 6.0 0.0 0.0
07:17 12.5 10.1 85 1017.6 3.1 N 6.0 0.0 0.0
07:18 12.6 10.1 85 1017.7 3.1 N 6.0 0.0 0.0
07:19 12.6 10.1 85 1017.5 3.8 W 6.0 0.0 0.0
07:20 12.6 10.1 85 1017.4 3.1 N 6.0 0.0 0.0
07:21 12.6 10.1 85 1017.5 3.8 W 6.0 0.0 0.0
07:23 12.7 10.2 85 1017.4 3.8 W 6.0 0.0 0.0
07:24 12.7 10.2 85 1017.4 3.1 W 6.0 0.0 0.0
07:25 12.7 10.2 85 1017.6 5.4 W 6.0 0.0 0.0
07:26 12.7 10.2 85 1017.6 5.4 W 6.0 0.0 0.0
07:27 12.7 10.2 85 1017.7 4.5 W 5.4 0.0 0.0
07:28 12.7 10.2 85 1017.4 4.5 N 5.4 0.0 0.0
07:29 12.8 10.3 85 1017.5 3.1 W 5.4 0.0 0.0
07:30 12.8 10.3 85 1017.4 4.5 NNW 5.4 0.0 0.0
07:31 12.8 10.3 85 1017.4 5.4 WNW 5.4 0.0 0.0
07:32 12.8 10.3 85 1017.5 3.1 W 5.4 0.0 0.0
07:33 12.8 10.3 85 1017.5 3.1 SW 5.4 0.0 0.0
07:34 12.9 10.4 85 1017.6 3.1 W 5.4 0.0 0.0
07:35 12.9 10.4 85 1017.3 3.8 W 5.4 0.0 0.0
07:37 12.9 10.4 85 1017.6 3.8 W 5.4 0.0 0.0
07:38 12.9 10.4 85 1017.6 3.8 W 5.4 0.0 0.0
07:39 13.0 10.5 85 1017.4 3.8 W 5.4 0.0 0.0
07:40 13.0 10.5 85 1017.4 3.8 SW 5.4 0.0 0.0
07:41 13.0 10.5 85 1017.7 3.8 W 5.4 0.0 0.0
07:42 13.0 10.5 85 1017.5 3.8 W 3.8 0.0 0.0
07:43 13.0 10.5 85 1017.5 3.1 W 3.8 0.0 0.0
07:44 13.0 10.5 85 1017.4 3.1 SW 3.8 0.0 0.0
07:45 13.1 10.6 85 1017.4 3.8 W 3.8 0.0 0.0
07:46 13.1 10.6 85 1017.6 3.8 NW 3.8 0.0 0.0
07:47 13.1 10.6 85 1017.5 3.8 W 3.8 0.0 0.0
07:48 13.1 10.6 85 1017.6 4.5 W 4.5 0.0 0.0
07:49 13.2 10.7 85 1017.7 6.0 W 6.0 0.0 0.0
07:51 13.2 10.7 85 1017.4 5.4 W 6.0 0.0 0.0
07:52 13.2 10.7 85 1017.6 5.4 W 6.0 0.0 0.0
07:53 13.2 10.7 85 1017.6 6.9 NE 6.9 0.0 0.0
07:54 13.3 10.8 85 1017.4 5.4 NW 6.9 0.0 0.0
07:55 13.3 10.8 85 1017.6 6.0 W 6.9 0.0 0.0
07:56 13.3 11.0 86 1017.5 6.9 W 6.9 0.0 0.0
07:57 13.4 11.1 86 1017.4 6.0 W 6.9 0.0 0.0
07:58 13.4 11.1 86 1017.5 6.0 W 6.9 0.0 0.0
07:59 13.4 11.1 86 1017.5 5.4 W 6.9 0.0 0.0
08:00 13.4 11.1 86 1017.7 5.4 W 6.9 0.0 0.0
08:01 13.4 11.1 86 1017.7 5.4 W 6.9 0.0 0.0
08:02 13.5 11.2 86 1017.6 5.4 W 6.9 0.0 0.0
08:03 13.6 11.3 86 1017.5 6.9 W 6.9 0.0 0.0
08:05 13.7 11.4 86 1017.3 7.6 W 7.6 0.0 0.0
08:06 13.7 11.4 86 1017.3 7.6 W 7.6 0.0 0.0
08:07 13.7 11.4 86 1017.6 6.0 N 9.8 0.0 0.0
08:08 13.7 11.4 86 1017.7 4.5 SW 9.8 0.0 0.0
08:09 13.7 11.4 86 1017.7 6.0 N 9.8 0.0 0.0
08:10 13.8 11.5 86 1017.5 4.5 NW 9.8 0.0 0.0
08:11 13.8 11.5 86 1017.5 6.0 W 9.8 0.0 0.0
08:12 13.9 11.6 86 1017.6 6.9 W 9.8 0.0 0.0
08:13 14.0 11.7 86 1017.8 10.7 N 10.7 0.0 0.0
08:14 14.0 11.7 86 1017.7 6.9 N 10.7 0.0 0.0
08:15 14.0 11.7 86 1017.6 6.9 N 10.7 0.0 0.0
08:16 14.1 11.8 86 1017.7 6.0 NW 10.7 0.0 0.0
08:17 14.1 11.8 86 1017.7 6.0 N 10.7 0.0 0.0
08:19 14.2 11.9 86 1017.9 6.0 W 10.7 0.0 0.0
08:20 14.2 11.9 86 1017.7 5.4 NW 10.7 0.0 0.0
08:21 14.2 11.9 86 1017.5 8.3 W 10.7 0.0 0.0
08:22 14.3 12.0 86 1017.6 8.3 NW 10.7 0.0 0.0
08:23 14.3 12.0 86 1017.7 7.6 NW 10.7 0.0 0.0
08:24 14.4 12.1 86 1017.7 8.3 W 8.3 0.0 0.0
08:25 14.4 12.1 86 1017.8 7.6 N 8.3 0.0 0.0
08:26 14.4 12.1 86 1017.6 6.0 NW 8.3 0.0 0.0
08:27 14.5 12.2 86 1017.8 9.2 SE 9.2 0.0 0.0
08:28 14.6 12.3 86 1017.6 11.4 N 11.4 0.0 0.0
08:29 14.6 12.3 86 1017.7 11.4 NW 11.4 0.0 0.0
08:30 14.6 12.3 86 1017.6 11.4 NW 11.4 0.0 0.0
08:31 14.7 12.4 86 1017.7 10.7 N 11.4 0.0 0.0
08:32 14.8 12.5 86 1017.4 6.9 W 11.4 0.0 0.1
08:34 14.8 12.5 86 1017.6 7.6 W 11.4 0.8 0.1
08:35 14.9 12.6 86 1017.6 9.2 NE 11.4 0.8 0.1
08:36 14.9 12.6 86 1017.7 12.1 N 12.1 0.8 0.1
08:37 14.9 12.6 86 1017.7 9.8 W 12.1 0.8 0.1
08:38 15.0 12.5 85 1017.9 7.6 N 12.1 0.0 0.1
08:39 15.0 12.5 85 1017.7 10.7 NW 12.1 0.0 0.1
08:40 15.0 12.5 85 1017.8 10.7 W 12.1 0.0 0.1
08:41 15.0 12.5 85 1017.7 9.8 NW 12.1 0.0 0.1
08:42 15.1 12.6 85 1017.8 9.8 W 12.1 0.0 0.1
08:43 15.1 12.6 85 1017.7 8.3 N 12.1 0.0 0.1
08:44 15.2 12.7 85 1017.8 9.2 N 12.1 0.0 0.1
08:45 15.2 12.5 84 1017.9 8.3 WNW 12.1 0.0 0.1
08:46 15.2 12.5 84 1017.8 9.2 N 10.7 0.0 0.1
08:48 15.2 12.5 84 1017.8 6.9 N 10.7 0.0 0.1
08:49 15.2 12.5 84 1017.7 9.2 W 10.7 0.0 0.1
08:50 15.2 12.5 84 1017.7 7.6 NW 10.7 0.0 0.1
08:51 15.2 12.3 83 1018.1 6.0 NW 9.8 0.0 0.1
08:52 15.2 12.3 83 1017.9 6.9 W 9.8 0.0 0.1
08:53 15.2 12.3 83 1017.8 5.4 W 9.2 0.0 0.1
08:54 15.2 12.3 83 1017.9 3.8 NW 9.2 0.0 0.1
08:55 15.2 12.3 83 1017.9 6.9 N 9.2 0.0 0.1
08:56 15.2 12.3 83 1017.9 7.6 N 9.2 0.0 0.1
08:57 15.2 12.3 83 1017.9 7.6 NW 9.2 0.0 0.1
08:58 15.2 12.3 83 1017.9 6.9 NW 9.2 0.0 0.1
08:59 15.2 12.2 82 1017.9 3.8 NE 7.6 0.0 0.1
09:00 15.2 12.2 82 1017.9 3.8 NE 7.6 0.0 0.1
09:02 15.2 12.2 82 1017.8 3.8 NE 7.6 0.0 0.1
09:03 15.2 12.2 82 1018.0 3.8 NE 7.6 0.0 0.1
09:04 15.2 12.2 82 1017.9 3.8 NE 7.6 0.0 0.1
09:05 15.2 12.2 82 1017.9 3.8 NE 7.6 0.0 0.1
09:06 15.2 12.2 82 1017.8 6.0 W 7.6 0.0 0.1
09:07 15.2 12.2 82 1017.8 3.8 N 7.6 0.0 0.1
09:08 15.2 12.2 82 1017.8 9.2 NW 9.2 0.0 0.1
09:09 15.2 12.2 82 1017.8 6.0 N 9.2 0.0 0.1
09:10 15.2 12.0 81 1017.7 6.9 NE 9.2 0.0 0.1
09:11 15.2 12.0 81 1017.8 4.5 N 9.2 0.0 0.1
09:13 15.3 12.1 81 1017.9 6.0 NW 9.2 0.0 0.1
09:14 15.3 12.1 81 1017.7 3.8 NNW 9.2 0.0 0.1
09:15 15.3 12.1 81 1017.7 6.9 NW 9.2 0.0 0.1
09:16 15.3 12.1 81 1017.8 7.6 N 9.2 0.0 0.1
09:17 15.4 12.2 81 1017.9 7.6 N 9.2 0.0 0.1
09:18 15.4 12.0 80 1017.9 7.6 NW 9.2 0.0 0.1
09:19 15.5 12.1 80 1017.7 3.8 N 7.6 0.0 0.1
09:20 15.5 12.1 80 1017.9 6.0 NW 7.6 0.0 0.1
09:21 15.6 12.2 80 1018.0 6.0 N 7.6 0.0 0.1
09:22 15.6 12.2 80 1017.7 6.0 NW 7.6 0.0 0.1
09:23 15.6 12.2 80 1017.7 6.0 NE 7.6 0.0 0.1
09:24 15.6 12.2 80 1017.7 6.9 S 7.6 0.0 0.1
09:25 15.7 12.1 79 1017.7 5.4 W 7.6 0.0 0.1
09:27 15.7 12.1 79 1017.8 3.8 NW 7.6 0.0 0.1
09:28 15.7 11.9 78 1018.0 5.4 N 6.9 0.0 0.1
09:29 15.7 11.9 78 1018.0 5.4 N 6.9 0.0 0.1
09:30 15.7 11.9 78 1017.8 3.8 W 6.9 0.0 0.1
09:31 15.8 12.0 78 1017.9 5.4 W 8.3 0.0 0.1
09:32 15.8 11.8 77 1017.8 4.5 N 8.3 0.0 0.1
09:33 15.8 11.8 77 1017.8 3.1 S 8.3 0.0 0.1
09:34 15.8 11.8 77 1017.8 5.4 NW 8.3 0.0 0.1
09:35 15.8 11.8 77 1017.6 6.9 NW 8.3 0.0 0.1
09:36 15.8 11.6 76 1017.7 6.0 NW 8.3 0.0 0.1
09:37 15.9 11.7 76 1017.8 6.9 NW 8.3 0.0 0.1
09:38 15.9 11.7 76 1017.8 6.0 NW 8.3 0.0 0.1
09:39 15.9 11.7 76 1017.7 6.9 NW 8.3 0.0 0.1
09:41 16.0 11.6 75 1017.9 6.0 NE 7.6 0.0 0.1
09:42 16.0 11.6 75 1017.9 6.9 NE 7.6 0.0 0.1
09:43 16.0 11.6 75 1018.0 7.6 SE 7.6 0.0 0.1
09:44 16.0 11.6 75 1018.1 3.1 NE 7.6 0.0 0.1
09:45 16.0 11.6 75 1017.8 7.6 N 7.6 0.0 0.1
09:46 16.0 11.6 75 1018.0 7.6 N 7.6 0.0 0.1
09:47 16.0 11.4 74 1017.7 6.9 NW 7.6 0.0 0.1
09:48 16.0 11.4 74 1017.7 3.8 NW 7.6 0.0 0.1
09:49 16.0 11.4 74 1017.9 6.0 W 7.6 0.0 0.1
09:50 16.0 11.2 73 1017.8 6.0 N 7.6 0.0 0.1
09:51 16.0 11.2 73 1018.1 7.6 N 7.6 0.0 0.1
09:52 16.0 11.2 73 1017.8 6.0 W 7.6 0.0 0.1
09:53 16.0 11.2 73 1017.9 4.5 N 7.6 0.0 0.1
09:55 16.1 11.3 73 1017.6 6.0 N 7.6 0.0 0.1
09:56 16.1 11.3 73 1018.0 6.0 NE 7.6 0.0 0.1
09:57 16.1 11.3 73 1018.0 5.4 E 7.6 0.0 0.1
09:58 16.1 11.3 73 1018.0 6.0 NW 7.6 0.0 0.1
09:59 16.2 11.4 73 1017.9 3.8 NE 7.6 0.0 0.1
10:00 16.2 11.4 73 1018.0 3.8 NE 7.6 0.0 0.1
10:01 16.2 11.4 73 1018.0 3.8 NE 7.6 0.0 0.1
10:02 16.2 11.4 73 1018.0 3.8 NE 7.6 0.0 0.1
10:03 16.4 11.6 73 1017.9 6.0 NE 6.9 0.0 0.1
10:04 16.4 11.6 73 1017.9 3.8 SW 6.9 0.0 0.1
10:05 16.5 11.7 73 1017.9 4.5 NE 6.9 0.0 0.1
10:06 16.5 11.7 73 1018.0 6.9 W 6.9 0.0 0.1
10:07 16.6 11.5 72 1018.0 6.9 SE 6.9 0.0 0.1
10:09 16.7 11.6 72 1017.7 3.8 NW 6.9 0.0 0.1
10:10 16.7 11.6 72 1017.7 3.8 NW 6.9 0.0 0.1
10:11 16.8 11.7 72 1018.0 7.6 WNW 7.6 0.0 0.1
10:12 16.9 11.8 72 1018.1 6.0 NE 7.6 0.0 0.1
10:13 16.9 11.8 72 1018.1 7.6 NW 7.6 0.0 0.1
10:14 17.0 11.9 72 1017.9 7.6 W 7.6 0.0 0.1
10:15 17.1 11.8 71 1018.0 6.9 N 7.6 0.0 0.1
10:16 17.1 11.8 71 1018.1 6.9 N 7.6 0.0 0.1
10:17 17.2 11.9 71 1018.0 7.6 S 7.6 0.0 0.1
10:18 17.2 11.9 71 1018.1 7.6 SE 7.6 0.0 0.1
10:19 17.3 12.0 71 1017.9 6.0 SW 7.6 0.0 0.1
10:20 17.3 11.8 70 1018.1 6.9 NE 7.6 0.0 0.1
10:21 17.4 11.9 70 1017.9 4.5 N 7.6 0.0 0.1
10:23 17.4 11.9 70 1018.0 8.3 NE 8.3 0.0 0.1
10:24 17.4 11.9 70 1018.0 8.3 SE 8.3 0.0 0.1
10:25 17.5 10.9 65 1018.0 9.2 SW 9.2 0.0 0.1
10:26 17.5 10.9 65 1018.1 6.9 NW 9.2 0.0 0.1
10:27 17.5 10.6 64 1018.0 6.9 NE 9.2 0.0 0.1
10:28 17.4 11.2 67 1018.0 6.0 W 9.2 0.0 0.1
10:29 17.4 11.2 67 1018.1 3.8 N 9.2 0.0 0.1
10:30 17.4 11.2 67 1018.0 7.6 N 9.2 0.0 0.1
10:31 17.4 11.4 68 1017.9 7.6 NE 9.2 0.0 0.1
10:32 17.5 10.6 64 1018.1 5.4 WNW 9.2 0.0 0.1
10:33 17.5 10.6 64 1018.2 9.2 N 9.2 0.0 0.1
10:34 17.5 10.6 64 1018.1 9.2 W 9.2 0.0 0.1
10:35 17.5 10.6 64 1018.0 8.3 N 9.2 0.0 0.1
10:37 17.6 10.5 63 1018.2 6.0 NW 9.2 0.0 0.1
10:38 17.6 10.5 63 1018.2 6.0 NW 9.2 0.0 0.1
10:39 17.6 10.2 62 1018.3 9.8 NW 9.8 0.0 0.1
10:40 17.6 10.0 61 1018.2 8.3 N 9.8 0.0 0.1
10:41 17.6 10.0 61 1018.3 8.3 NE 9.8 0.0 0.1
10:42 17.6 10.0 61 1018.3 6.9 NE 9.8 0.0 0.1
10:43 17.6 10.0 61 1018.2 10.7 NE 10.7 0.0 0.1
10:44 17.7 10.3 62 1018.2 6.0 NNW 10.7 0.0 0.1
10:45 17.8 10.4 62 1018.2 6.9 N 10.7 0.0 0.1
10:46 17.9 10.5 62 1018.2 6.9 N 10.7 0.0 0.1
10:47 17.9 10.8 63 1018.5 6.0 NW 10.7 0.0 0.1
10:48 18.0 10.6 62 1018.4 6.9 NW 10.7 0.0 0.1
10:49 18.0 10.6 62 1018.3 5.4 W 10.7 0.0 0.1
10:51 18.1 10.7 62 1018.5 6.0 NE 10.7 0.0 0.1
10:52 18.2 10.8 62 1018.4 12.1 W 12.1 0.0 0.1
10:53 18.2 10.6 61 1018.4 12.1 NW 12.1 0.0 0.1
10:54 18.2 10.6 61 1018.5 6.9 NW 12.1 0.0 0.1
10:55 18.0 10.4 61 1018.5 8.3 N 12.1 0.0 0.1
10:56 17.9 10.0 60 1018.4 8.3 NW 12.1 0.0 0.1
10:57 17.9 10.0 60 1018.6 5.4 NW 12.1 0.0 0.1
10:58 17.8 9.9 60 1018.5 7.6 N 12.1 0.0 0.1
10:59 17.8 10.2 61 1018.2 6.9 NW 12.1 0.0 0.1
11:00 17.8 10.2 61 1018.5 6.9 NW 12.1 0.0 0.1
11:01 17.8 10.2 61 1018.4 6.9 NW 12.1 0.0 0.1
11:02 17.9 10.0 60 1018.3 12.1 W 12.1 0.0 0.1
11:03 17.9 10.3 61 1018.4 9.8 NW 12.1 0.0 0.1
11:04 18.0 10.4 61 1018.3 11.4 NE 12.1 0.0 0.1
11:06 18.0 10.1 60 1018.4 11.4 NW 12.1 0.0 0.1
11:07 18.0 10.1 60 1018.4 9.2 N 12.1 0.0 0.1
11:08 18.1 10.2 60 1018.3 7.6 NW 12.1 0.0 0.1
11:09 18.1 10.2 60 1018.3 7.6 N 12.1 0.0 0.1
11:10 18.1 10.2 60 1018.3 10.7 NW 12.1 0.0 0.1
11:11 18.1 10.2 60 1018.4 6.9 NW 12.1 0.0 0.1
11:12 18.1 10.2 60 1018.4 9.2 NW 12.1 0.0 0.1
11:13 18.2 10.3 60 1018.3 7.6 NW 11.4 0.0 0.1
11:14 18.2 10.1 59 1018.5 6.0 N 11.4 0.0 0.1
11:15 18.3 10.4 60 1018.4 9.2 N 11.4 0.0 0.1
11:17 18.4 10.5 60 1018.6 9.8 W 10.7 0.0 0.1
11:18 18.3 10.4 60 1018.3 8.3 N 10.7 0.0 0.1
11:19 18.3 10.4 60 1018.5 9.8 NNW 10.7 0.0 0.1
11:20 18.3 10.4 60 1018.7 9.8 NNW 9.8 0.0 0.1
11:21 18.1 10.5 61 1018.5 5.4 N 9.8 0.0 0.1
11:22 18.1 10.5 61 1018.4 8.3 N 9.8 0.0 0.1
11:23 18.1 10.5 61 1018.6 12.1 E 12.1 0.0 0.1
11:24 18.1 10.5 61 1018.8 12.1 E 12.1 0.0 0.1
11:25 18.3 10.9 62 1018.6 11.4 N 12.1 0.0 0.1
11:26 18.3 10.9 62 1018.4 8.3 N 12.1 0.0 0.1
11:27 18.4 11.0 62 1018.7 9.8 NE 12.1 0.0 0.1
11:28 18.5 10.8 61 1018.6 9.8 N 12.1 0.0 0.1
11:29 18.6 10.9 61 1018.6 10.7 NE 12.1 0.0 0.1
11:31 18.6 10.9 61 1018.5 6.9 W 12.1 0.0 0.1
11:32 18.7 11.3 62 1018.4 5.4 WNW 12.1 0.0 0.1
11:33 18.7 11.3 62 1018.6 6.0 NNW 12.1 0.0 0.1
11:34 18.8 11.1 61 1018.5 12.1 NE 12.1 0.0 0.1
11:35 18.8 10.9 60 1018.6 8.3 NW 12.1 0.0 0.1
11:36 18.8 10.9 60 1018.4 8.3 NW 12.1 0.0 0.1
11:37 18.8 10.9 60 1018.3 12.1 W 12.1 0.0 0.1
11:38 18.7 10.5 59 1018.5 5.4 NW 12.1 0.0 0.1
11:39 18.7 10.5 59 1018.5 6.9 NW 12.1 0.0 0.1
11:40 18.5 10.1 58 1018.6 6.0 N 12.1 0.0 0.1
11:41 18.5 10.3 59 1018.4 4.5 N 12.1 0.0 0.1
11:42 18.6 10.4 59 1018.7 8.3 NW 12.1 0.0 0.1
11:43 18.7 10.8 60 1018.3 4.5 NE 12.1 0.0 0.1
11:45 19.0 11.3 61 1018.7 3.8 N 12.1 0.0 0.1
11:46 19.1 11.4 61 1018.5 7.6 N 12.1 0.0 0.1
11:47 19.3 11.6 61 1018.6 5.4 NW 12.1 0.0 0.1
11:48 19.3 11.4 60 1018.5 5.4 NE 8.3 0.0 0.1
11:49 19.2 11.3 60 1018.6 4.5 N 8.3 0.0 0.1
11:50 19.2 11.3 60 1018.5 5.4 E 8.3 0.0 0.1
11:51 19.1 11.2 60 1018.6 6.9 W 8.3 0.0 0.1
11:52 19.2 11.3 60 1018.6 7.6 NE 8.3 0.0 0.1
11:53 19.3 11.4 60 1018.5 5.4 N 7.6 0.0 0.1
11:54 19.3 11.1 59 1018.5 9.2 N 9.2 0.0 0.1
11:55 19.4 11.2 59 1018.6 6.9 NW 9.2 0.0 0.1
11:56 19.4 10.7 57 1018.6 8.3 NW 9.2 0.0 0.1
11:57 19.3 10.0 55 1018.7 7.6 S 9.2 0.0 0.1
11:59 19.1 9.9 55 1018.4 10.7 NW 10.7 0.0 0.1
12:00 19.1 9.9 55 1018.6 10.7 NW 10.7 0.0 0.1
12:01 19.1 9.9 55 1018.5 10.7 NW 10.7 0.0 0.1
12:02 19.1 9.9 55 1018.6 10.7 NW 10.7 0.0 0.1
12:03 19.1 9.9 55 1018.6 10.7 NW 10.7 0.0 0.1
12:04 19.1 9.9 55 1018.4 10.7 NW 10.7 0.0 0.1
12:05 19.1 9.9 55 1018.5 10.7 NW 10.7 0.0 0.1
12:06 19.2 10.2 56 1018.6 10.7 SW 10.7 0.0 0.1
12:07 19.3 9.8 54 1018.6 9.2 N 10.7 0.0 0.1
12:08 19.4 10.4 56 1018.6 10.7 N 10.7 0.0 0.1
12:09 19.4 10.4 56 1018.7 9.8 N 10.7 0.0 0.1
12:10 19.3 10.6 57 1018.6 9.2 E 10.7 0.0 0.1
12:11 19.3 10.8 58 1018.6 6.9 N 10.7 0.0 0.1
12:12 19.4 11.4 60 1018.5 4.5 NE 10.7 0.0 0.1
12:14 19.4 11.2 59 1018.5 5.4 NW 10.7 0.0 0.1
12:15 19.5 11.0 58 1018.6 7.6 N 10.7 0.0 0.1
12:16 19.6 11.4 59 1018.6 7.6 NW 10.7 0.0 0.1
12:17 19.7 11.5 59 1018.5 6.0 NW 10.7 0.0 0.1
12:18 19.8 11.6 59 1018.7 6.0 W 10.7 0.0 0.1
12:19 20.0 12.0 60 1018.4 4.5 NE 10.7 0.0 0.1
12:20 20.1 12.1 60 1018.4 6.0 N 9.2 0.0 0.1
12:21 20.2 11.2 56 1018.5 8.3 N 8.3 0.0 0.1
12:22 20.2 11.2 56 1018.4 8.3 N 8.3 0.0 0.1
12:23 20.2 11.2 56 1018.5 8.3 N 8.3 0.0 0.1
12:24 20.1 11.1 56 1018.4 9.2 NW 9.2 0.0 0.1
12:25 20.0 10.7 55 1018.3 6.9 NW 9.2 0.0 0.1
12:26 20.0 10.7 55 1018.6 9.8 W 9.8 0.0 0.1
12:28 19.8 10.8 56 1018.6 6.0 N 9.8 0.0 0.1
12:29 19.8 10.8 56 1018.6 4.5 N 9.8 0.0 0.1
12:30 19.7 10.7 56 1018.6 8.3 N 9.8 0.0 0.1
12:31 19.6 11.1 58 1018.5 6.9 NNW 9.8 0.0 0.1
12:32 19.5 10.8 57 1018.4 7.6 NW 9.8 0.0 0.1
12:33 19.6 11.1 58 1018.8 9.8 NW 9.8 0.0 0.1
12:34 19.6 11.1 58 1018.5 9.8 NW 9.8 0.0 0.1
12:35 19.8 11.8 60 1018.4 6.0 N 9.8 0.0 0.1
12:36 19.9 11.9 60 1018.4 6.0 N 9.8 0.0 0.1
12:37 19.9 11.9 60 1018.4 7.6 N 9.8 0.0 0.1
12:38 19.9 11.7 59 1018.7 6.0 NW 9.8 0.0 0.1
12:39 19.9 11.9 60 1018.5 7.6 N 9.8 0.0 0.1
12:40 19.7 11.2 58 1018.6 8.3 NE 9.8 0.0 0.1
12:42 19.6 10.9 57 1018.6 8.3 N 9.8 0.0 0.1
12:43 19.5 10.8 57 1018.6 10.7 S 10.7 0.0 0.1
12:44 19.4 10.7 57 1018.5 9.2 N 10.7 0.0 0.1
12:45 19.4 10.4 56 1018.6 10.7 SW 10.7 0.0 0.1
12:46 19.4 10.4 56 1018.7 11.4 W 11.4 0.0 0.1
12:47 19.5 11.0 58 1018.5 7.6 NW 11.4 0.0 0.1
12:48 19.6 11.4 59 1018.5 9.2 NW 11.4 0.0 0.1
12:49 19.7 11.5 59 1018.4 9.2 N 11.4 0.0 0.1
12:50 19.8 11.8 60 1018.7 9.2 NE 11.4 0.0 0.1
12:51 19.8 11.6 59 1018.3 9.2 N 11.4 0.0 0.1
12:52 19.7 11.0 57 1018.6 8.3 N 11.4 0.0 0.1
12:53 19.6 10.9 57 1018.5 8.3 N 11.4 0.0 0.1
12:54 19.4 10.4 56 1018.5 9.2 N 11.4 0.0 0.1
12:56 19.1 10.1 56 1018.5 6.9 NW 9.2 0.0 0.1
12:57 19.1 10.1 56 1018.3 6.9 NW 9.2 0.0 0.1
12:58 18.8 10.1 57 1018.8 5.4 W 9.2 0.0 0.1
12:59 18.7 10.8 60 1018.4 4.5 N 9.2 0.0 0.1
13:00 18.7 10.8 60 1018.5 4.5 N 9.2 0.0 0.1
13:01 18.7 10.8 60 1018.6 4.5 N 9.2 0.0 0.1
13:02 18.7 10.8 60 1018.4 4.5 N 9.2 0.0 0.1
13:03 18.7 10.8 60 1018.5 4.5 N 9.2 0.0 0.1
13:04 18.7 10.8 60 1018.5 4.5 N 9.2 0.0 0.1
13:05 18.5 10.1 58 1018.5 13.0 N 13.0 0.0 0.1
13:06 18.6 10.7 60 1018.4 8.3 N 13.0 0.0 0.1
13:07 18.8 10.9 60 1018.6 8.3 N 13.0 0.0 0.1
13:08 19.1 11.4 61 1018.5 7.6 NW 13.0 0.0 0.1
13:09 19.2 11.3 60 1018.5 12.1 NW 13.0 0.0 0.1
13:11 19.2 10.5 57 1018.5 10.7 NW 13.0 0.0 0.1
13:12 19.2 10.7 58 1018.7 10.7 NE 13.0 0.0 0.1
13:13 19.2 10.7 58 1018.6 10.7 N 13.0 0.0 0.1
13:14 19.2 10.7 58 1018.5 10.7 N 13.0 0.0 0.1
13:15 19.2 10.5 57 1018.5 9.8 NE 13.0 0.0 0.1
13:16 19.3 11.1 59 1018.5 8.3 NE 12.1 0.0 0.1
13:18 19.4 11.2 59 1018.4 7.6 NE 12.1 0.0 0.1
13:19 19.5 10.8 57 1018.5 6.9 NW 12.1 0.0 0.1
13:20 19.6 11.1 58 1018.5 9.2 N 10.7 0.0 0.1
13:21 19.7 11.7 60 1018.6 5.4 NNW 10.7 0.0 0.1
13:22 19.9 11.9 60 1018.5 8.3 N 10.7 0.0 0.1
13:23 20.0 11.8 59 1018.4 8.3 N 10.7 0.0 0.1
13:24 20.1 11.3 57 1018.3 7.6 NE 9.8 0.0 0.1
13:26 20.1 11.1 56 1018.3 10.7 NW 10.7 0.0 0.1
13:27 20.1 11.1 56 1018.6 8.3 E 10.7 0.0 0.1
13:28 20.0 11.0 56 1018.5 7.6 W 10.7 0.0 0.1
13:29 19.9 10.6 55 1018.5 8.3 WNW 10.7 0.0 0.1
13:30 19.8 10.8 56 1018.4 7.6 E 10.7 0.0 0.1
13:31 19.8 11.3 58 1018.3 9.2 N 10.7 0.0 0.1
13:32 19.9 11.9 60 1018.5 5.4 N 10.7 0.0 0.1
13:33 20.1 11.6 58 1018.6 9.2 N 10.7 0.0 0.1
13:34 20.1 11.1 56 1018.5 9.2 NW 10.7 0.0 0.1
13:35 20.0 11.0 56 1018.6 3.8 NW 10.7 0.0 0.1
13:36 20.2 11.4 57 1018.5 8.3 NE 9.2 0.0 0.1
13:37 20.2 11.4 57 1018.5 8.3 NE 9.2 0.0 0.1
13:38 20.3 11.2 56 1018.4 6.9 NW 9.2 0.0 0.1
13:40 20.5 11.4 56 1018.6 8.3 NW 9.2 0.0 0.1
13:41 20.5 11.4 56 1018.3 8.3 ESE 9.2 0.0 0.1
13:42 20.6 11.5 56 1018.7 4.5 N 9.2 0.0 0.1
13:43 20.5 11.2 55 1018.4 7.6 W 9.2 0.0 0.1
13:44 20.4 11.1 55 1018.6 7.6 NW 9.2 0.0 0.1
13:45 20.3 10.7 54 1018.4 9.2 NE 9.2 0.0 0.1
13:46 20.2 10.0 52 1018.5 8.3 NW 9.2 0.0 0.1
13:47 20.2 10.3 53 1018.4 8.3 NW 9.2 0.0 0.1
13:48 20.2 10.9 55 1018.6 9.8 W 9.8 0.0 0.1
13:49 20.2 10.9 55 1018.4 9.2 NW 9.8 0.0 0.1
13:50 20.1 10.5 54 1018.4 9.2 N 9.8 0.0 0.1
13:51 20.0 10.1 53 1018.4 11.4 N 11.4 0.0 0.1
13:52 19.6 9.8 53 1018.3 6.0 NE 11.4 0.0 0.1
13:54 19.4 9.9 54 1018.4 11.4 N 11.4 0.0 0.1
13:55 19.4 10.1 55 1018.4 7.6 NW 11.4 0.0 0.1
13:56 19.4 10.1 55 1018.4 5.4 NNW 11.4 0.0 0.1
13:57 19.4 10.7 57 1018.5 6.0 NW 11.4 0.0 0.1
13:58 19.6 11.1 58 1018.5 5.4 NE 11.4 0.0 0.1
13:59 19.8 11.0 57 1018.4 9.8 W 11.4 0.0 0.1
14:00 19.8 11.0 57 1018.3 9.8 W 11.4 0.0 0.1
14:01 19.8 11.0 57 1018.3 9.8 W 11.4 0.0 0.1
14:02 20.0 11.0 56 1018.5 11.4 N 11.4 0.0 0.1
14:03 20.0 10.7 55 1018.5 9.8 N 11.4 0.0 0.1
14:04 20.0 10.4 54 1018.3 6.0 NW 11.4 0.0 0.1
14:05 19.9 10.0 53 1018.4 11.4 N 11.4 0.0 0.1
14:06 19.8 10.2 54 1018.4 11.4 NE 11.4 0.0 0.1
14:07 19.8 10.2 54 1018.3 6.0 N 11.4 0.0 0.1
14:09 19.8 10.2 54 1018.5 6.0 W 11.4 0.0 0.1
14:10 19.7 10.1 54 1018.5 6.0 N 11.4 0.0 0.1
14:11 19.5 10.0 54 1018.3 5.4 N 11.4 0.0 0.1
14:12 19.5 10.2 55 1018.4 7.6 W 11.4 0.0 0.1
14:13 19.5 10.0 54 1018.4 13.6 NW 13.6 0.0 0.1
14:14 19.5 9.7 53 1018.4 13.6 NW 13.6 0.0 0.1
14:15 19.4 9.9 54 1018.5 8.3 WSW 13.6 0.0 0.1
14:16 19.3 9.8 54 1018.4 5.4 W 13.6 0.0 0.1
14:17 19.2 10.0 55 1018.4 6.9 NW 13.6 0.0 0.1
14:18 19.3 10.0 55 1018.5 6.9 NW 13.6 0.0 0.1
14:19 19.4 10.1 55 1018.2 8.3 NW 13.6 0.0 0.1
14:20 19.5 10.2 55 1018.3 6.9 NW 13.6 0.0 0.1
14:21 19.6 10.3 55 1018.5 9.2 W 13.6 0.0 0.1
14:23 19.7 10.4 55 1018.4 8.3 NW 13.6 0.0 0.1
14:24 19.8 10.5 55 1018.5 6.0 NE 10.7 0.0 0.1
14:25 19.9 10.6 55 1018.5 6.0 N 10.7 0.0 0.1
14:26 20.0 10.7 55 1018.3 6.0 NE 10.7 0.0 0.1
14:27 20.2 11.2 56 1018.4 6.9 NW 10.7 0.0 0.1
14:28 20.3 11.0 55 1018.5 10.7 N 10.7 0.0 0.1
14:29 20.3 10.4 53 1018.3 9.8 N 10.7 0.0 0.1
14:30 20.2 10.0 52 1018.4 9.2 NW 10.7 0.0 0.1
14:31 19.9 9.5 51 1018.4 8.3 NW 10.7 0.0 0.1
14:32 19.7 9.6 52 1018.3 8.3 N 10.7 0.0 0.1
14:33 19.6 9.5 52 1018.4 7.6 NW 10.7 0.0 0.1
14:34 19.5 9.4 52 1018.3 9.2 SW 10.7 0.0 0.1
14:35 19.3 9.2 52 1018.4 9.2 N 10.7 0.0 0.1
14:37 19.3 9.8 54 1018.4 9.8 N 10.7 0.0 0.1
14:38 19.3 9.8 54 1018.4 9.8 N 10.7 0.0 0.1
14:39 19.3 9.5 53 1018.5 9.8 N 9.8 0.0 0.1
14:40 19.4 9.9 54 1018.3 11.4 N 11.4 0.0 0.1
14:41 19.4 9.9 54 1018.6 11.4 N 11.4 0.0 0.1
14:42 19.3 9.8 54 1018.3 8.3 NE 11.4 0.0 0.1
14:43 19.1 9.3 53 1018.4 6.0 NW 11.4 0.0 0.1
14:44 19.0 9.2 53 1018.3 5.4 NW 11.4 0.0 0.1
14:45 19.0 9.2 53 1018.4 9.2 NE 11.4 0.0 0.1
14:46 19.0 9.5 54 1018.3 9.8 NW 11.4 0.0 0.1
14:47 19.0 9.5 54 1018.4 9.2 NW 11.4 0.0 0.1
14:48 19.1 9.6 54 1018.4 6.0 NW 11.4 0.0 0.1
14:49 19.1 10.1 56 1018.4 6.9 E 11.4 0.0 0.1
14:50 19.3 10.6 57 1018.3 8.3 W 11.4 0.0 0.1
14:51 19.4 10.7 57 1018.5 7.6 W 9.8 0.0 0.1
14:52 19.8 11.3 58 1018.3 6.0 N 9.8 0.0 0.1
14:53 19.9 11.4 58 1018.4 9.2 NW 9.8 0.0 0.1
14:55 20.1 10.8 55 1018.4 10.7 NE 10.7 0.0 0.1
14:56 20.2 10.3 53 1018.3 9.8 SE 10.7 0.0 0.1
14:57 20.2 10.3 53 1018.5 9.8 N 10.7 0.0 0.1
14:58 20.2 10.3 53 1018.4 6.9 NE 10.7 0.0 0.1
14:59 20.2 10.6 54 1018.6 7.6 W 10.7 0.0 0.1
15:00 20.2 10.6 54 1018.5 7.6 W 10.7 0.0 0.1
15:01 20.2 10.6 54 1018.3 7.6 W 10.7 0.0 0.1
15:02 20.2 10.6 54 1018.5 7.6 W 10.7 0.0 0.1
15:03 20.3 9.8 51 1018.4 8.3 NW 10.7 0.0 0.1
15:04 20.2 9.8 51 1018.3 9.8 NE 10.7 0.0 0.1
15:05 20.2 10.0 52 1018.3 7.6 NNW 10.7 0.0 0.1
15:06 20.1 9.7 51 1018.3 9.8 N 10.7 0.0 0.1
15:07 20.1 9.7 51 1018.5 8.3 NW 10.7 0.0 0.1
15:08 20.1 10.2 53 1018.3 11.4 N 11.4 0.0 0.1
15:09 20.2 10.0 52 1018.7 11.4 N 11.4 0.0 0.1
15:10 20.3 10.1 52 1018.4 6.9 NE 11.4 0.0 0.1
15:12 20.4 9.9 51 1018.3 6.9 N 11.4 0.0 0.1
15:13 20.5 10.0 51 1018.4 8.3 N 11.4 0.0 0.1
15:14 20.5 10.0 51 1018.4 9.2 N 11.4 0.0 0.1
15:15 20.6 9.8 50 1018.4 9.2 N 11.4 0.0 0.1
15:16 20.5 9.7 50 1018.4 6.9 E 11.4 0.0 0.1
15:17 20.5 9.7 50 1018.4 6.0 W 11.4 0.0 0.1
15:18 20.5 9.7 50 1018.4 10.7 N 11.4 0.0 0.1
15:19 20.3 9.5 50 1018.3 11.4 N 11.4 0.0 0.1
15:20 20.1 9.7 51 1018.4 10.7 N 11.4 0.0 0.1
15:22 20.1 9.9 52 1018.3 7.6 W 11.4 0.0 0.1
15:23 20.2 10.3 53 1018.2 9.8 NW 11.4 0.0 0.1
15:24 20.3 10.7 54 1018.1 13.0 NW 13.0 0.0 0.1
15:25 20.4 10.2 52 1018.3 13.0 N 13.0 0.0 0.1
15:26 20.4 9.9 51 1018.5 7.6 NW 13.0 0.0 0.1
15:27 20.4 9.9 51 1018.4 9.2 W 13.0 0.0 0.1
15:28 20.3 10.1 52 1018.5 8.3 W 13.0 0.0 0.1
15:29 20.3 10.1 52 1018.3 8.3 NW 13.0 0.0 0.1
15:30 20.3 10.1 52 1018.3 6.0 N 13.0 0.0 0.1
15:31 20.1 9.9 52 1018.4 10.7 S 13.0 0.0 0.1
15:32 20.0 10.1 53 1018.2 6.0 N 13.0 0.0 0.1
15:33 20.1 10.5 54 1018.1 7.6 W 13.0 0.0 0.1
15:34 20.2 10.6 54 1018.3 9.2 W 13.0 0.0 0.1
15:35 20.3 10.4 53 1018.5 8.3 NW 10.7 0.0 0.1
15:36 20.4 10.2 52 1018.5 6.0 N 10.7 0.0 0.1
15:38 20.5 10.6 53 1018.3 6.9 N 10.7 0.0 0.1
15:39 20.7 10.5 52 1018.4 7.6 W 10.7 0.0 0.1
15:40 20.7 10.5 52 1018.5 9.2 NW 10.7 0.0 0.1
15:41 20.7 10.5 52 1018.3 9.2 NW 10.7 0.0 0.1
15:42 20.7 10.5 52 1018.4 11.4 N 11.4 0.0 0.1
15:43 20.5 9.7 50 1018.4 10.7 N 11.4 0.0 0.1
15:44 20.4 9.6 50 1018.4 8.3 N 11.4 0.0 0.1
15:45 20.2 9.5 50 1018.3 9.2 WNW 11.4 0.0 0.1
15:46 20.1 9.7 51 1018.6 9.2 NW 11.4 0.0 0.1
15:47 20.0 9.3 50 1018.4 14.5 S 14.5 0.0 0.1
15:48 19.9 9.5 51 1018.3 7.6 W 14.5 0.0 0.1
15:49 19.9 9.5 51 1018.4 7.6 NW 14.5 0.0 0.1
15:50 19.9 9.5 51 1018.4 8.3 NW 14.5 0.0 0.1
15:51 19.9 9.8 52 1018.3 9.2 NW 14.5 0.0 0.1
15:52 20.0 10.1 53 1018.3 9.2 NW 14.5 0.0 0.1
15:54 20.1 10.2 53 1018.4 6.0 NW 14.5 0.0 0.1
15:55 20.1 10.2 53 1018.4 8.3 N 14.5 0.0 0.1
15:56 20.1 9.9 52 1018.4 9.2 NE 14.5 0.0 0.1
15:57 20.0 9.6 51 1018.3 9.2 SW 14.5 0.0 0.1
15:58 19.9 9.8 52 1018.5 7.6 NW 9.2 0.0 0.1
15:59 19.9 10.0 53 1018.3 6.9 W 9.2 0.0 0.1
16:00 19.9 10.0 53 1018.3 6.9 W 9.2 0.0 0.1
16:01 19.9 10.0 53 1018.5 6.9 W 9.2 0.0 0.1
16:02 19.9 10.0 53 1018.3 6.9 W 9.2 0.0 0.1
16:03 19.9 10.0 53 1018.4 6.9 W 9.2 0.0 0.1
16:04 19.9 10.0 53 1018.5 6.9 W 9.2 0.0 0.1
16:05 20.4 10.2 52 1018.6 9.8 NW 9.8 0.0 0.1
16:06 20.5 10.3 52 1018.4 9.2 NW 9.8 0.0 0.1
16:07 20.5 10.6 53 1018.6 7.6 SW 9.8 0.0 0.1
16:08 20.5 10.6 53 1018.6 7.6 N 9.8 0.0 0.1
16:10 20.5 10.6 53 1018.5 7.6 N 9.8 0.0 0.1
16:11 20.5 10.0 51 1018.6 10.7 NW 10.7 0.0 0.1
16:12 20.4 10.2 52 1018.4 6.0 N 10.7 0.0 0.1
16:13 20.4 10.2 52 1018.8 7.6 W 10.7 0.0 0.1
16:14 20.4 10.2 52 1018.5 6.9 W 10.7 0.0 0.1
16:15 20.5 10.9 54 1018.5 5.4 NW 10.7 0.0 0.1
16:16 20.6 11.0 54 1018.4 9.8 NNW 10.7 0.0 0.1
16:17 20.6 10.7 53 1018.6 9.8 NW 10.7 0.0 0.1
16:18 20.7 11.1 54 1018.6 3.8 NE 10.7 0.0 0.1
16:19 20.7 10.8 53 1018.5 8.3 E 10.7 0.0 0.1
16:20 20.8 10.9 53 1018.7 9.2 W 11.4 0.0 0.1
16:21 20.8 10.9 53 1018.6 4.5 NNW 11.4 0.0 0.1
16:22 20.8 10.9 53 1018.6 6.0 W 11.4 0.0 0.1
16:23 20.9 11.3 54 1018.5 6.0 NNW 11.4 0.0 0.1
16:24 20.9 11.0 53 1018.6 6.9 NE 11.4 0.0 0.1
16:25 20.9 11.0 53 1018.6 8.3 NW 11.4 0.0 0.1
16:27 21.0 11.3 54 1018.9 6.0 NW 11.4 0.0 0.1
16:28 21.0 11.3 54 1018.6 6.9 N 11.4 0.0 0.1
16:29 21.0 11.1 53 1018.8 6.9 NW 11.4 0.0 0.1
16:30 21.0 11.1 53 1018.7 8.3 N 11.4 0.0 0.1
16:31 20.9 10.4 51 1018.6 8.3 N 12.1 0.0 0.1
16:32 20.8 10.0 50 1018.8 10.7 N 12.1 0.0 0.1
16:33 20.7 9.9 50 1018.8 9.2 NW 12.1 0.0 0.1
16:34 20.6 9.8 50 1018.8 11.4 W 12.1 0.0 0.1
16:35 20.4 9.9 51 1018.9 5.4 N 12.1 0.0 0.1
16:36 20.3 9.8 51 1018.6 9.2 ESE 12.1 0.0 0.1
16:37 20.3 10.1 52 1019.0 7.6 W 12.1 0.0 0.1
16:38 20.3 10.1 52 1018.8 7.6 NW 12.1 0.0 0.1
16:39 20.3 10.1 52 1018.6 9.8 NNW 12.1 0.0 0.1
16:41 20.2 9.8 51 1018.9 12.1 S 12.1 0.0 0.1
16:42 20.2 9.8 51 1018.9 12.1 S 12.1 0.0 0.1
16:43 20.1 9.9 52 1018.7 9.8 W 12.1 0.0 0.1
16:44 20.0 9.9 52 1019.0 7.6 NW 12.1 0.0 0.1
16:45 19.9 9.5 51 1018.8 13.0 W 13.0 0.0 0.1
16:46 19.9 9.5 51 1018.9 13.0 W 13.0 0.0 0.1
16:47 19.7 9.0 50 1019.0 8.3 NW 13.0 0.0 0.1
16:48 19.7 9.3 51 1019.0 6.0 N 13.0 0.0 0.1
16:49 19.7 9.9 53 1018.8 6.9 N 13.0 0.0 0.1
16:50 19.8 10.0 53 1018.8 7.6 S 13.0 0.0 0.1
16:51 19.9 10.0 53 1018.8 7.6 NW 13.0 0.0 0.1
16:52 20.0 9.9 52 1019.0 6.0 W 13.0 0.0 0.1
16:53 20.0 9.9 52 1018.7 9.8 W 13.0 0.0 0.1
16:54 19.9 9.5 51 1018.9 7.6 WNW 13.0 0.0 0.1
16:56 19.8 9.4 51 1019.0 8.3 NW 9.8 0.0 0.1
16:57 19.8 9.4 51 1019.0 8.3 NW 9.8 0.0 0.1
16:58 19.8 9.7 52 1018.8 8.3 NE 9.8 0.0 0.1
16:59 19.8 9.7 52 1018.7 6.9 N 9.8 0.0 0.1
17:00 19.8 9.7 52 1018.6 6.9 N 9.8 0.0 0.1
17:01 19.8 9.7 52 1018.8 6.9 N 9.8 0.0 0.1
17:02 19.8 9.7 52 1018.9 6.9 N 9.8 0.0 0.1
17:03 19.7 9.3 51 1018.7 10.7 NW 10.7 0.0 0.1
17:04 19.6 8.9 50 1018.8 9.8 NW 10.7 0.0 0.1
17:05 19.5 8.8 50 1018.8 7.6 NW 13.0 0.0 0.1
17:06 19.5 8.8 50 1018.9 7.6 NW 13.0 0.0 0.1
17:07 19.4 9.0 51 1018.9 9.8 NNW 13.0 0.0 0.1
17:08 19.3 8.9 51 1018.7 9.8 N 13.0 0.0 0.1
17:09 19.3 8.9 51 1019.0 9.2 W 13.0 0.0 0.1
17:11 19.3 9.5 53 1018.9 6.0 W 13.0 0.0 0.1
17:12 19.4 9.3 52 1018.9 6.9 W 13.0 0.0 0.1
17:13 19.4 9.3 52 1018.8 8.3 NW 13.0 0.0 0.1
17:14 19.4 9.0 51 1018.9 9.2 NW 13.0 0.0 0.1
17:15 19.4 9.0 51 1018.8 9.2 W 13.0 0.0 0.1
17:16 19.4 9.0 51 1018.7 8.3 W 9.8 0.0 0.1
17:17 19.4 9.0 51 1018.8 8.3 NE 9.8 0.0 0.1
17:18 19.3 8.6 50 1018.8 8.3 N 9.8 0.0 0.1
17:19 19.3 8.6 50 1018.8 8.3 W 9.2 0.0 0.1
17:20 19.4 9.0 51 1018.7 9.2 NNW 9.8 0.0 0.1
17:21 19.4 9.0 51 1018.6 8.3 NE 9.8 0.0 0.1
17:23 19.4 9.3 52 1018.8 7.6 N 9.8 0.0 0.1
17:24 19.5 9.4 52 1019.0 7.6 NW 9.8 0.0 0.1
17:25 19.5 9.4 52 1018.6 8.3 N 9.8 0.0 0.1
17:26 19.6 9.5 52 1018.7 8.3 N 9.8 0.0 0.1
17:27 19.6 9.2 51 1018.7 5.4 N 9.8 0.0 0.1
17:28 19.6 9.5 52 1018.9 5.4 N 9.8 0.0 0.1
17:29 19.7 9.6 52 1018.6 8.3 W 9.8 0.0 0.1
17:30 19.7 9.6 52 1018.6 10.7 NW 10.7 0.0 0.1
17:31 19.6 9.2 51 1018.7 9.8 NW 10.7 0.0 0.1
17:32 19.4 9.0 51 1018.8 6.0 NW 10.7 0.0 0.1
17:33 19.4 9.0 51 1018.5 4.5 NNW 10.7 0.0 0.1
17:34 19.4 9.3 52 1018.6 7.6 NW 10.7 0.0 0.1
17:35 19.5 9.7 53 1018.8 5.4 NW 10.7 0.0 0.1
17:36 19.6 10.0 54 1018.7 9.8 N 10.7 0.0 0.1
17:38 19.7 9.3 51 1018.7 9.2 N 10.7 0.0 0.1
17:39 19.6 9.2 51 1018.5 6.0 NW 10.7 0.0 0.1
17:40 19.6 9.2 51 1018.9 9.8 N 10.7 0.0 0.1
17:41 19.5 8.8 50 1018.8 10.7 NW 10.7 0.0 0.1
17:42 19.5 9.1 51 1018.9 5.4 W 10.7 0.0 0.1
17:43 19.4 8.7 50 1018.7 6.9 NW 10.7 0.0 0.1
17:44 19.4 9.0 51 1018.6 6.9 NW 10.7 0.0 0.1
17:45 19.3 8.9 51 1018.7 7.6 N 10.7 0.0 0.1
17:46 19.2 8.8 51 1018.6 9.2 W 10.7 0.0 0.1
17:47 19.2 8.8 51 1018.8 6.9 W 10.7 0.0 0.1
17:48 19.1 8.7 51 1018.4 7.6 W 10.7 0.0 0.1
17:49 19.2 8.8 51 1018.4 6.9 NW 10.7 0.0 0.1
17:50 19.1 8.7 51 1018.7 7.6 NW 10.7 0.0 0.1
17:51 19.2 9.1 52 1018.6 5.4 SW 9.2 0.0 0.1
17:53 19.3 9.5 53 1018.6 6.0 NW 9.2 0.0 0.1
17:54 19.3 9.5 53 1018.6 6.0 NW 9.2 0.0 0.1
17:55 19.4 9.6 53 1018.5 6.9 NW 9.2 0.0 0.1
17:56 19.4 9.6 53 1018.7 8.3 NW 9.2 0.0 0.1
17:57 19.4 9.3 52 1018.6 8.3 N 8.3 0.0 0.1
17:58 19.4 9.3 52 1018.6 8.3 N 8.3 0.0 0.1
17:59 19.4 9.6 53 1018.8 8.3 NNW 8.3 0.0 0.1
18:00 19.4 9.6 53 1018.7 8.3 NNW 8.3 0.0 0.1
18:01 19.4 9.6 53 1018.6 8.3 NNW 8.3 0.0 0.1
18:02 19.4 9.6 53 1018.7 8.3 NNW 8.3 0.0 0.1
18:03 19.2 9.4 53 1018.4 9.2 NW 9.2 0.0 0.1
18:04 19.2 9.4 53 1018.6 9.2 N 9.2 0.0 0.1
18:05 19.2 9.4 53 1018.6 7.6 SW 9.2 0.0 0.1
18:06 19.2 9.7 54 1018.4 6.9 W 9.2 0.0 0.1
18:07 19.2 9.7 54 1018.7 6.9 W 9.2 0.0 0.1
18:09 19.2 9.4 53 1018.5 6.9 W 9.8 0.0 0.1
18:10 19.2 9.4 53 1018.5 6.9 W 9.8 0.0 0.1
18:11 19.2 9.1 52 1018.5 8.3 W 9.8 0.0 0.1
18:12 19.1 9.0 52 1018.6 6.9 N 9.8 0.0 0.1
18:13 19.1 9.0 52 1018.4 8.3 NW 9.8 0.0 0.1
18:14 19.0 8.9 52 1018.6 8.3 N 9.8 0.0 0.1
18:15 19.0 8.9 52 1018.7 9.8 NW 9.8 0.0 0.1
18:16 19.0 8.9 52 1018.6 5.4 N 9.8 0.0 0.1
18:17 19.0 9.2 53 1018.4 9.8 W 9.8 0.0 0.1
18:18 19.0 9.2 53 1018.7 9.2 NE 9.8 0.0 0.1
18:19 19.0 9.2 53 1018.6 9.2 NE 9.8 0.0 0.1
18:20 19.1 9.3 53 1018.6 7.6 N 9.8 0.0 0.1
18:21 19.1 9.0 52 1018.6 8.3 N 9.8 0.0 0.1
18:22 19.1 9.0 52 1018.5 8.3 N 9.8 0.0 0.1
18:23 19.1 9.0 52 1018.6 8.3 N 9.8 0.0 0.1
18:25 19.0 9.2 53 1018.4 8.3 W 9.8 0.0 0.1
18:26 19.0 9.2 53 1018.4 8.3 W 9.8 0.0 0.1
18:27 19.0 9.2 53 1018.6 6.0 NW 9.8 0.0 0.1
18:28 19.0 9.2 53 1018.5 7.6 NW 9.8 0.0 0.1
18:29 18.9 9.1 53 1018.8 8.3 NW 9.8 0.0 0.1
18:30 18.9 9.1 53 1018.5 8.3 NE 9.8 0.0 0.1
18:31 19.1 9.6 54 1018.5 6.9 E 9.8 0.0 0.1
18:32 19.1 9.3 53 1018.7 6.9 NW 9.8 0.0 0.1
18:33 19.2 9.1 52 1018.5 9.2 E 9.8 0.0 0.1
18:34 19.2 9.1 52 1018.4 9.8 N 9.8 0.0 0.1
18:35 19.3 9.2 52 1018.4 9.8 NW 9.8 0.0 0.1
18:36 19.4 9.6 53 1018.6 6.9 NW 9.8 0.0 0.1
18:37 19.4 9.6 53 1018.5 6.9 NW 9.8 0.0 0.1
18:39 19.4 9.6 53 1018.4 6.9 NW 9.8 0.0 0.1
18:40 19.4 9.6 53 1018.6 5.4 W 9.8 0.0 0.1
18:41 19.4 9.6 53 1018.7 6.9 W 9.8 0.0 0.1
18:42 19.4 9.6 53 1018.5 8.3 WNW 9.8 0.0 0.1
18:43 19.2 9.1 52 1018.5 9.2 NE 9.8 0.0 0.1
18:44 19.2 9.1 52 1018.3 9.2 NE 9.8 0.0 0.1
18:45 19.2 9.1 52 1018.5 9.2 NE 9.8 0.0 0.1
18:46 19.2 9.4 53 1018.7 4.5 NW 9.2 0.0 0.1
18:47 19.2 9.7 54 1018.8 5.4 NW 9.2 0.0 0.1
18:48 19.2 9.7 54 1018.6 5.4 W 9.2 0.0 0.1
18:49 19.2 9.7 54 1018.8 5.4 W 9.2 0.0 0.1
18:50 19.1 9.3 53 1018.7 7.6 W 9.2 0.0 0.1
18:51 19.1 9.3 53 1018.5 7.6 W 9.2 0.0 0.1
18:52 19.0 8.9 52 1018.4 6.0 SW 9.2 0.0 0.1
18:53 19.0 9.2 53 1018.4 5.4 WNW 9.2 0.0 0.1
18:55 18.9 8.8 52 1018.3 5.4 N 9.2 0.0 0.1
18:56 18.9 9.1 53 1018.4 3.8 N 7.6 0.0 0.1
18:57 18.9 9.1 53 1018.4 3.8 N 7.6 0.0 0.1
18:58 18.9 8.8 52 1018.4 5.4 NNW 7.6 0.0 0.1
18:59 18.8 8.7 52 1018.4 4.5 W 7.6 0.0 0.1
19:00 18.8 8.7 52 1018.4 4.5 W 7.6 0.0 0.1
19:01 18.8 8.7 52 1018.4 4.5 W 7.6 0.0 0.1
19:02 18.8 8.7 52 1018.6 4.5 W 7.6 0.0 0.1
19:03 18.7 8.7 52 1018.5 7.6 E 7.6 0.0 0.1
19:04 18.6 8.3 51 1018.4 4.5 N 7.6 0.0 0.1
19:05 18.6 8.3 51 1018.6 5.4 NW 7.6 0.0 0.1
19:06 18.5 8.5 52 1018.6 4.5 NW 7.6 0.0 0.1
19:07 18.5 8.5 52 1018.7 7.6 N 7.6 0.0 0.1
19:09 18.5 8.5 52 1018.6 6.9 W 7.6 0.0 0.1
19:10 18.5 8.5 52 1018.6 6.9 W 7.6 0.0 0.1
19:11 18.3 8.0 51 1018.8 7.6 NE 7.6 0.0 0.1
19:12 18.2 8.2 52 1018.8 6.9 N 7.6 0.0 0.1
19:13 18.2 8.2 52 1018.8 4.5 NW 7.6 0.0 0.1
19:14 18.1 8.1 52 1018.6 6.0 E 7.6 0.0 0.1
19:15 18.1 8.1 52 1018.6 6.0 E 7.6 0.0 0.1
19:16 18.1 8.1 52 1018.6 6.0 E 7.6 0.0 0.1
19:17 18.1 8.4 53 1018.6 6.9 NW 7.6 0.0 0.1
19:18 18.1 8.1 52 1018.8 6.9 NE 7.6 0.0 0.1
19:19 18.0 8.0 52 1018.7 5.4 NW 7.6 0.0 0.1
19:20 18.0 8.0 52 1018.6 5.4 NW 7.6 0.0 0.1
19:22 17.9 7.9 52 1018.6 8.3 N 8.3 0.0 0.1
19:23 17.9 7.9 52 1018.6 6.0 NE 8.3 0.0 0.1
19:24 17.9 7.9 52 1018.7 6.0 NE 8.3 0.0 0.1
19:25 17.8 7.8 52 1018.7 5.4 NE 8.3 0.0 0.1
19:26 17.8 7.8 52 1018.9 5.4 NW 8.3 0.0 0.1
19:27 17.8 8.1 53 1018.4 5.4 NW 8.3 0.0 0.1
19:28 17.8 8.1 53 1018.6 3.8 NW 8.3 0.0 0.1
19:29 17.8 8.1 53 1018.6 3.8 NW 8.3 0.0 0.1
19:30 17.8 8.1 53 1018.8 3.8 NW 8.3 0.0 0.1
19:31 17.8 8.1 53 1018.7 3.8 NW 8.3 0.0 0.1
19:32 17.8 8.1 53 1018.7 8.3 W 8.3 0.0 0.1
19:34 17.8 8.4 54 1018.7 6.9 WNW 8.3 0.0 0.1
19:35 17.8 8.4 54 1018.6 3.8 N 8.3 0.0 0.1
19:36 17.8 8.4 54 1018.5 3.8 N 8.3 0.0 0.1
19:37 17.9 8.5 54 1018.9 7.6 NW 8.3 0.0 0.1
19:38 17.9 8.5 54 1018.6 7.6 NW 8.3 0.0 0.1
19:39 17.8 8.1 53 1018.9 6.0 NE 8.3 0.0 0.1
19:40 17.8 8.1 53 1018.7 6.0 N 8.3 0.0 0.1
19:41 17.8 8.1 53 1018.8 6.0 N 8.3 0.0 0.1
19:42 17.9 8.5 54 1018.9 6.9 NE 8.3 0.0 0.1
19:43 17.9 8.5 54 1018.8 6.0 NW 7.6 0.0 0.1
19:44 17.8 8.4 54 1018.6 6.9 NW 7.6 0.0 0.1
19:45 17.8 8.4 54 1018.9 6.9 NW 7.6 0.0 0.1
19:46 17.8 8.4 54 1018.8 5.4 NW 7.6 0.0 0.1
19:47 17.8 8.4 54 1018.9 5.4 NW 7.6 0.0 0.1
19:48 17.8 8.4 54 1018.8 5.4 NW 7.6 0.0 0.1
19:50 17.8 8.4 54 1018.9 5.4 NW 6.9 0.0 0.1
19:51 17.8 8.6 55 1018.8 6.9 NE 9.2 0.0 0.1
19:52 17.8 8.6 55 1018.9 6.9 NW 9.2 0.0 0.1
19:53 17.8 8.6 55 1018.8 6.9 NW 9.2 0.0 0.1
19:54 17.8 8.4 54 1018.7 4.5 NE 9.2 0.0 0.1
19:55 17.8 8.4 54 1019.0 4.5 E 9.2 0.0 0.1
19:56 17.8 8.4 54 1018.9 4.5 E 9.2 0.0 0.1
19:57 17.7 8.6 55 1018.9 6.0 N 9.2 0.0 0.1
19:58 17.7 8.6 55 1018.9 6.0 N 9.2 0.0 0.1
19:59 17.7 8.6 55 1018.9 6.0 N 9.2 0.0 0.1
20:00 17.7 8.6 55 1018.8 6.0 N 9.2 0.0 0.1
20:01 17.7 8.6 55 1019.1 6.0 N 6.9 0.0 0.1
20:02 17.7 8.6 55 1019.0 6.0 N 6.9 0.0 0.1
20:03 17.7 8.6 55 1018.7 6.0 N 6.0 0.0 0.1
20:04 17.7 8.6 55 1018.9 6.0 N 6.0 0.0 0.1
20:06 17.6 8.5 55 1018.9 3.1 NW 6.0 0.0 0.1
20:07 17.5 8.4 55 1019.0 3.8 NW 6.0 0.0 0.1
20:08 17.5 8.4 55 1019.1 3.1 NW 6.0 0.0 0.1
20:09 17.5 8.4 55 1018.7 3.8 W 6.0 0.0 0.1
20:10 17.5 8.4 55 1019.0 3.8 W 6.0 0.0 0.1
20:11 17.5 8.6 56 1018.9 3.8 NW 6.0 0.0 0.1
20:12 17.5 8.6 56 1018.9 3.8 NW 6.0 0.0 0.1
20:13 17.5 8.6 56 1018.9 3.8 NW 6.0 0.0 0.1
20:14 17.4 9.6 60 1018.8 2.2 NW 6.0 0.0 0.1
20:15 17.4 9.6 60 1018.9 2.2 NW 3.8 0.0 0.1
20:16 17.4 9.6 60 1018.9 3.1 NW 3.8 0.0 0.1
20:17 17.4 9.6 60 1018.8 3.1 NW 3.8 0.0 0.1
20:18 17.4 9.6 60 1019.1 3.8 W 3.8 0.0 0.1
20:19 17.4 9.6 60 1019.0 3.8 W 3.8 0.0 0.1
20:20 17.3 9.5 60 1018.9 2.2 NW 4.5 0.0 0.1
20:22 17.2 9.4 60 1018.7 3.8 W 4.5 0.0 0.1
20:23 17.2 9.4 60 1018.8 3.8 NW 4.5 0.0 0.1
20:24 17.1 9.3 60 1018.9 3.8 NW 4.5 0.0 0.1
20:25 17.1 9.3 60 1018.9 3.8 NW 4.5 0.0 0.1
20:26 17.1 9.3 60 1018.9 3.8 NW 4.5 0.0 0.1
20:27 17.0 9.2 60 1018.7 3.1 NW 4.5 0.0 0.1
20:28 17.0 9.2 60 1018.8 3.1 NW 4.5 0.0 0.1
20:29 17.0 9.2 60 1019.0 3.1 NW 4.5 0.0 0.1
20:30 17.0 9.2 60 1019.0 3.1 NW 4.5 0.0 0.1
20:31 17.0 9.2 60 1018.7 3.1 NW 3.8 0.0 0.1
20:32 17.0 9.2 60 1018.8 3.1 NW 3.8 0.0 0.1
20:33 16.6 9.1 61 1019.0 2.2 W 3.8 0.0 0.1
20:34 16.5 9.0 61 1019.0 3.1 NW 3.8 0.0 0.1
20:35 16.5 9.0 61 1019.0 3.1 NW 3.8 0.0 0.1
20:36 16.4 8.9 61 1019.0 2.2 NW 3.8 0.0 0.1
20:37 16.4 8.9 61 1018.7 3.8 NW 3.8 0.0 0.1
20:39 16.3 8.8 61 1018.8 3.1 N 3.8 0.0 0.1
20:40 16.2 8.7 61 1018.9 3.1 NW 3.8 0.0 0.1
20:41 16.2 8.9 62 1018.8 3.1 NW 3.8 0.0 0.1
20:42 16.1 8.8 62 1018.8 3.1 NW 3.8 0.0 0.1
20:43 16.0 8.7 62 1018.6 3.1 N 3.8 0.0 0.1
20:44 16.0 8.7 62 1018.8 2.2 NW 3.8 0.0 0.1
20:45 15.9 8.6 62 1019.2 2.2 NW 3.8 0.0 0.1
20:46 15.9 8.6 62 1018.9 2.2 NW 3.8 0.0 0.1
20:47 15.7 8.4 62 1018.9 2.2 NW 3.8 0.0 0.1
20:48 15.7 8.4 62 1018.7 2.2 NW 3.1 0.0 0.1
20:49 15.6 8.4 62 1018.7 1.6 NW 3.1 0.0 0.1
20:50 15.5 8.3 62 1018.8 2.2 N 3.1 0.0 0.1
20:51 15.5 8.3 62 1018.8 1.6 NW 3.1 0.0 0.1
20:52 15.4 8.4 63 1018.8 2.2 N 3.1 0.0 0.1
20:54 15.3 8.3 63 1018.8 0.7 N 3.1 0.0 0.1
20:55 15.3 8.3 63 1018.8 0.7 NW 3.1 0.0 0.1
20:56 15.2 8.2 63 1018.7 1.6 N 3.1 0.0 0.1
20:57 15.2 8.2 63 1019.0 1.6 N 3.1 0.0 0.1
20:58 15.1 8.1 63 1018.9 1.6 N 3.1 0.0 0.1
20:59 15.0 8.0 63 1018.9 1.6 NE 2.2 0.0 0.1
21:00 15.0 8.0 63 1019.0 1.6 NE 2.2 0.0 0.1
21:01 15.0 8.0 63 1018.9 1.6 NE 2.2 0.0 0.1
21:02 15.0 8.0 63 1018.9 1.6 NE 2.2 0.0 0.1
21:03 15.0 8.0 63 1018.9 1.6 NE 2.2 0.0 0.1
21:04 15.0 8.0 63 1018.9 1.6 NE 1.6 0.0 0.1
21:05 14.7 8.0 64 1018.8 2.2 N 2.2 0.0 0.1
21:06 14.7 8.0 64 1018.9 0.7 N 2.2 0.0 0.1
21:07 14.7 8.0 64 1019.0 0.7 N 2.2 0.0 0.1
21:09 14.6 7.9 64 1018.8 1.6 N 2.2 0.0 0.1
21:10 14.6 7.9 64 1018.8 1.6 N 2.2 0.0 0.1
21:11 14.5 8.0 65 1018.9 1.6 N 2.2 0.0 0.1
21:12 14.5 8.0 65 1018.7 1.6 N 2.2 0.0 0.1
21:13 14.4 7.9 65 1018.8 2.2 N 2.2 0.0 0.1
21:14 14.4 7.9 65 1018.9 2.2 N 2.2 0.0 0.1
21:15 14.3 7.8 65 1018.8 1.6 N 2.2 0.0 0.1
21:16 14.3 7.8 65 1018.8 1.6 N 2.2 0.0 0.1
21:17 14.3 7.8 65 1018.8 2.2 N 2.2 0.0 0.1
21:19 14.2 7.9 66 1019.2 2.2 NW 2.2 0.0 0.1
21:20 14.1 7.8 66 1019.1 1.6 N 2.2 0.0 0.1
21:21 14.1 7.8 66 1018.7 1.6 N 2.2 0.0 0.1
21:23 14.1 7.8 66 1019.1 1.6 N 2.2 0.0 0.1
21:24 14.1 7.8 66 1018.9 1.6 N 2.2 0.0 0.1
21:25 14.0 7.8 66 1018.9 1.6 N 2.2 0.0 0.1
21:26 14.0 7.8 66 1018.7 2.2 NW 2.2 0.0 0.1
21:27 14.0 8.0 67 1019.1 1.6 N 2.2 0.0 0.1
21:28 13.9 7.9 67 1018.9 1.6 N 2.2 0.0 0.1
21:29 13.9 7.9 67 1018.9 1.6 N 2.2 0.0 0.1
21:30 13.8 7.8 67 1018.9 2.2 N 2.2 0.0 0.1
21:31 13.8 7.8 67 1019.1 2.2 N 2.2 0.0 0.1
21:32 13.8 7.8 67 1019.1 2.2 NE 2.2 0.0 0.1
21:33 13.8 8.0 68 1018.9 2.2 N 2.2 0.0 0.1
21:34 13.8 8.0 68 1019.0 2.2 N 2.2 0.0 0.1
21:36 13.6 7.8 68 1019.2 0.7 NE 2.2 0.0 0.1
21:37 13.6 7.8 68 1019.2 0.7 NE 2.2 0.0 0.1
21:38 13.6 7.8 68 1019.0 1.6 N 2.2 0.0 0.1
21:39 13.6 7.8 68 1019.0 1.6 N 2.2 0.0 0.1
21:40 13.6 7.8 68 1019.0 1.6 N 2.2 0.0 0.1
21:41 13.5 7.9 69 1019.3 1.6 N 2.2 0.0 0.1
21:42 13.5 7.9 69 1019.0 1.6 N 2.2 0.0 0.1
21:43 13.5 7.9 69 1018.8 1.6 N 2.2 0.0 0.1
21:44 13.5 7.9 69 1019.2 2.2 N 2.2 0.0 0.1
21:45 13.4 7.8 69 1018.8 1.6 N 2.2 0.0 0.1
21:46 13.4 7.8 69 1019.0 0.7 N 2.2 0.0 0.1
21:47 13.4 7.8 69 1019.1 0.7 N 2.2 0.0 0.1
21:48 13.4 8.0 70 1019.0 0.7 N 2.2 0.0 0.1
21:49 13.3 7.9 70 1019.2 0.7 N 2.2 0.0 0.1
21:51 13.3 7.9 70 1019.2 0.7 NE 2.2 0.0 0.1
21:52 13.3 7.9 70 1019.1 1.6 N 2.2 0.0 0.1
21:53 13.3 7.9 70 1019.0 1.6 NE 2.2 0.0 0.1
21:54 13.2 7.9 70 1019.0 0.7 N 2.2 0.0 0.1
21:55 13.2 7.9 70 1019.0 1.6 NE 2.2 0.0 0.1
21:56 13.2 7.9 70 1019.0 1.6 NW 1.6 0.0 0.1
21:57 13.2 7.9 70 1018.9 0.7 NE 1.6 0.0 0.1
21:58 13.1 7.8 70 1018.8 0.7 NE 1.6 0.0 0.1
21:59 13.1 7.8 70 1018.9 0.7 W 1.6 0.0 0.1
22:00 13.1 7.8 70 1018.8 0.7 W 1.6 0.0 0.1
22:01 13.1 7.8 70 1019.0 0.7 W 1.6 0.0 0.1
22:02 13.1 7.8 70 1018.8 0.7 W 1.6 0.0 0.1
22:03 13.1 7.8 70 1018.8 0.7 W 1.6 0.0 0.1
22:05 13.1 7.8 70 1018.9 0.7 W 1.6 0.0 0.1
22:06 13.1 7.8 70 1018.9 0.7 W 1.6 0.0 0.1
22:07 13.0 7.7 70 1018.8 0.7 N 0.7 0.0 0.1
22:08 13.0 7.9 71 1018.8 1.6 N 1.6 0.0 0.1
22:09 13.0 7.9 71 1019.0 1.6 N 1.6 0.0 0.1
22:10 13.0 7.9 71 1019.0 1.6 N 1.6 0.0 0.1
22:11 13.0 7.9 71 1019.1 1.6 N 1.6 0.0 0.1
22:12 13.0 7.9 71 1019.0 1.6 N 1.6 0.0 0.1
22:13 13.0 7.9 71 1019.0 0.7 N 1.6 0.0 0.1
22:14 13.0 7.9 71 1019.1 1.6 N 1.6 0.0 0.1
22:15 13.0 7.9 71 1018.9 1.6 W 1.6 0.0 0.1
22:16 13.0 7.9 71 1019.1 0.7 W 1.6 0.0 0.1
22:17 13.0 7.9 71 1018.9 1.6 N 1.6 0.0 0.1
22:18 13.0 7.9 71 1018.9 0.7 N 1.6 0.0 0.1
22:19 13.0 7.9 71 1019.0 1.6 N 1.6 0.0 0.1
22:21 13.0 7.9 71 1019.0 1.6 N 1.6 0.0 0.1
22:22 13.0 7.9 71 1019.0 1.6 N 1.6 0.0 0.1
22:23 12.9 7.8 71 1018.9 1.6 N 1.6 0.0 0.1
22:24 12.9 7.8 71 1019.0 0.7 NE 1.6 0.0 0.1
22:25 12.9 7.8 71 1019.1 0.7 N 1.6 0.0 0.1
22:26 12.9 7.8 71 1019.0 0.7 NE 1.6 0.0 0.1
22:27 12.9 7.8 71 1018.9 1.6 N 1.6 0.0 0.1
22:28 12.9 7.8 71 1019.2 1.6 N 1.6 0.0 0.1
22:29 12.9 7.8 71 1018.9 1.6 N 1.6 0.0 0.1
22:30 12.9 7.8 71 1018.9 1.6 N 1.6 0.0 0.1
22:31 12.8 7.7 71 1019.0 1.6 N 1.6 0.0 0.1
22:32 12.8 7.7 71 1019.1 1.6 N 1.6 0.0 0.1
22:33 12.8 7.7 71 1019.0 1.6 N 1.6 0.0 0.1
22:34 12.8 7.7 71 1018.9 1.6 N 1.6 0.0 0.1
22:36 12.8 7.7 71 1018.8 1.6 N 1.6 0.0 0.1
22:37 12.8 7.7 71 1019.0 1.6 NNW 1.6 0.0 0.1
22:38 12.7 7.6 71 1019.0 0.7 NE 1.6 0.0 0.1
22:39 12.7 7.6 71 1019.0 0.7 N 1.6 0.0 0.1
22:40 12.7 7.6 71 1019.0 0.7 N 1.6 0.0 0.1
22:41 12.7 7.6 71 1019.1 0.7 N 1.6 0.0 0.1
22:42 12.7 7.6 71 1018.9 0.7 N 1.6 0.0 0.1
22:43 12.6 7.5 71 1019.0 0.7 N 1.6 0.0 0.1
22:44 12.6 7.5 71 1019.2 0.0 N 1.6 0.0 0.1
22:45 12.5 7.4 71 1019.0 0.0 N 1.6 0.0 0.1
22:46 12.5 7.4 71 1019.1 0.7 N 1.6 0.0 0.1
22:47 12.5 7.4 71 1019.0 0.7 N 0.7 0.0 0.1
22:48 12.5 7.4 71 1019.1 0.7 N 0.7 0.0 0.1
22:49 12.4 7.7 73 1019.0 0.7 N 0.7 0.0 0.1
22:50 12.4 7.7 73 1019.0 0.7 N 0.7 0.0 0.1
22:52 12.3 7.6 73 1019.1 0.7 N 0.7 0.0 0.1
22:53 12.3 7.6 73 1019.1 0.7 N 0.7 0.0 0.1
22:54 12.3 7.6 73 1019.2 0.7 N 0.7 0.0 0.1
22:55 12.2 7.5 73 1019.0 0.7 N 0.7 0.0 0.1
22:56 12.2 7.5 73 1019.1 0.0 N 0.7 0.0 0.1
22:57 12.2 7.5 73 1019.1 0.7 N 0.7 0.0 0.1
22:58 12.2 7.5 73 1019.2 0.7 NE 0.7 0.0 0.1
22:59 12.2 7.7 74 1019.2 0.7 NE 0.7 0.0 0.1
23:00 12.2 7.7 74 1019.1 0.7 NE 0.7 0.0 0.1
23:01 12.2 7.7 74 1018.9 0.7 NE 0.7 0.0 0.1
23:02 12.2 7.7 74 1019.2 0.7 NE 0.7 0.0 0.1
23:03 12.2 7.7 74 1019.0 0.7 NE 0.7 0.0 0.1
23:04 12.2 7.7 74 1019.2 0.7 NE 0.7 0.0 0.1
23:06 12.2 7.7 74 1019.0 0.7 NE 0.7 0.0 0.1
23:07 12.2 7.9 75 1019.0 1.6 N 1.6 0.0 0.1
23:08 12.2 7.9 75 1018.9 0.7 N 1.6 0.0 0.1
23:09 12.1 7.8 75 1019.0 0.7 N 1.6 0.0 0.1
23:10 12.1 7.6 74 1019.3 0.7 N 1.6 0.0 0.1
23:11 12.1 7.6 74 1018.9 0.7 N 1.6 0.0 0.1
23:12 12.1 7.6 74 1019.0 0.0 N 1.6 0.0 0.1
23:13 12.0 7.5 74 1019.2 0.7 N 1.6 0.0 0.1
23:14 12.0 7.5 74 1018.9 0.7 N 1.6 0.0 0.1
23:15 12.0 7.5 74 1019.0 0.0 N 1.6 0.0 0.1
23:16 11.9 7.4 74 1018.9 0.7 N 1.6 0.0 0.1
23:17 11.9 7.4 74 1019.1 0.7 N 0.7 0.0 0.1
23:18 11.8 7.3 74 1019.0 0.7 N 0.7 0.0 0.1
23:20 11.8 7.3 74 1019.0 0.0 N 0.7 0.0 0.1
23:21 11.8 7.3 74 1019.2 0.7 N 0.7 0.0 0.1
23:22 11.7 7.2 74 1018.9 0.7 N 0.7 0.0 0.1
23:23 11.7 7.2 74 1019.1 0.7 N 0.7 0.0 0.1
23:25 11.6 7.1 74 1019.0 0.0 N 0.7 0.0 0.1
23:26 11.6 7.1 74 1019.0 0.0 N 0.7 0.0 0.1
23:27 11.6 7.1 74 1019.0 0.0 N 0.7 0.0 0.1
23:28 11.5 7.0 74 1019.2 0.0 N 0.7 0.0 0.1
23:29 11.5 7.0 74 1019.2 0.0 N 0.7 0.0 0.1
23:30 11.5 7.0 74 1018.9 0.0 N 0.7 0.0 0.1
23:32 11.5 7.0 74 1018.9 0.0 N 0.7 0.0 0.1
23:33 11.5 7.0 74 1019.2 0.0 N 0.7 0.0 0.1
23:34 11.5 7.0 74 1018.8 0.0 N 0.0 0.0 0.1
23:35 11.4 6.9 74 1019.1 0.0 N 0.0 0.0 0.1
23:36 11.4 6.9 74 1019.0 0.0 N 0.0 0.0 0.1
23:37 11.4 6.9 74 1019.0 0.0 N 0.0 0.0 0.1
23:38 11.4 6.9 74 1018.9 0.0 N 0.0 0.0 0.1
23:39 11.4 6.9 74 1019.0 0.0 N 0.0 0.0 0.1
23:40 11.3 6.8 74 1019.1 0.0 N 0.0 0.0 0.1
23:41 11.3 7.0 75 1019.2 0.0 N 0.0 0.0 0.1
23:42 11.3 7.0 75 1019.0 0.0 N 0.0 0.0 0.1
23:43 11.3 7.0 75 1019.2 0.0 N 0.0 0.0 0.1
23:44 11.3 7.0 75 1019.2 0.0 N 0.0 0.0 0.1
23:46 11.2 6.9 75 1019.0 0.0 N 0.0 0.0 0.1
23:47 11.2 6.9 75 1019.1 0.0 N 0.0 0.0 0.1
23:48 11.2 6.9 75 1018.9 0.0 N 0.0 0.0 0.1
23:49 11.2 6.9 75 1019.1 0.7 NE 0.7 0.0 0.1
23:50 11.2 6.9 75 1019.2 0.7 NE 0.7 0.0 0.1
23:51 11.2 6.9 75 1019.1 0.7 NW 0.7 0.0 0.1
23:52 11.2 6.9 75 1019.1 0.7 NW 0.7 0.0 0.1
23:53 11.2 6.9 75 1019.2 0.7 NW 0.7 0.0 0.1
23:54 11.2 6.9 75 1019.1 0.0 NW 0.7 0.0 0.1
23:55 11.2 6.9 75 1019.0 0.0 NW 0.7 0.0 0.1
23:56 11.2 6.9 75 1019.2 0.0 NW 0.7 0.0 0.1
23:57 11.1 6.8 75 1019.1 0.7 E 0.7 0.0 0.1
23:58 11.1 6.8 75 1019.1 0.0 E 0.7 0.0 0.1

 

 

UK - WEATHER STATION TOPSITES - UK World Weather Websites

Copyright © Carnkie Weather 2009 - 2020.